KLM635 EHAM-KLAS

Flight info

Callsign KLM635
Flight time N/A
Altitude 32000
Route N0484F320 BERGI2S BERGI L602 NALAX L46 GETNO DCT KUGUR DCT SUNOT/M084F320 DCT 58N020W 58N030W 5830N04000W 59N050W/M084F340 DCT TOXIT/M084F360 DCT SINGA/N0485F360 DCT LOPVI DCT 59N070W/N0489F380 58N080W 56N090W 52N100W DCT RUDVI DCT BIL/N0478F360 DCT KU84Q/N0481F320 DCT PICHO/N0471F300 Q842 TABLL/N0454F280 Q842 WINEN/N0447F270 DCT STEWW CHOWW4
Aircraft B772/H-SDE2E3FGHIJ3J5P2RWXYZ/LB1D1

Departure

Time 2026-05-04 15:59
Airport Amsterdam Airport Schiphol (EHAM)

Arrival

Time N/A
Airport Harry Reid International Airport (KLAS)
Time Latitude Longitude Altitude Speed Heading
2026-05-04 13:59 52.31146 4.76521 3 ft 0 kts 123°
2026-05-04 15:39 52.31154 4.76500 4 ft 4 kts 121°
2026-05-04 15:39 52.31184 4.76439 3 ft 3 kts 150°
2026-05-04 15:40 52.31208 4.76430 3 ft 4 kts 188°
2026-05-04 15:40 52.31231 4.76436 4 ft 4 kts 192°
2026-05-04 15:40 52.31257 4.76448 5 ft 4 kts 202°
2026-05-04 15:40 52.31281 4.76466 4 ft 4 kts 210°
2026-05-04 15:41 52.31304 4.76490 4 ft 4 kts 213°
2026-05-04 15:41 52.31315 4.76500 4 ft 4 kts 213°
2026-05-04 15:41 52.31337 4.76525 3 ft 4 kts 215°
2026-05-04 15:41 52.31355 4.76545 3 ft 4 kts 214°
2026-05-04 15:42 52.31378 4.76565 3 ft 4 kts 186°
2026-05-04 15:42 52.31376 4.76563 3 ft 4 kts 192°
2026-05-04 15:42 52.31353 4.76542 3 ft 4 kts 218°
2026-05-04 15:42 52.31336 4.76509 3 ft 4 kts 238°
2026-05-04 15:43 52.31333 4.76469 3 ft 4 kts 278°
2026-05-04 15:43 52.31348 4.76438 3 ft 4 kts 321°
2026-05-04 15:43 52.31372 4.76420 3 ft 3 kts 341°
2026-05-04 15:43 52.31375 4.76418 3 ft 0 kts 342°
2026-05-04 15:46 52.31401 4.76404 3 ft 14 kts 341°
2026-05-04 15:47 52.31517 4.76299 3 ft 20 kts 300°
2026-05-04 15:47 52.31529 4.76077 4 ft 20 kts 267°
2026-05-04 15:47 52.31525 4.75847 3 ft 20 kts 267°
2026-05-04 15:47 52.31518 4.75619 3 ft 20 kts 267°
2026-05-04 15:48 52.31509 4.75389 3 ft 20 kts 266°
2026-05-04 15:48 52.31501 4.75161 3 ft 20 kts 267°
2026-05-04 15:48 52.31488 4.74702 3 ft 20 kts 267°
2026-05-04 15:49 52.31479 4.74473 4 ft 20 kts 266°
2026-05-04 15:49 52.31474 4.74355 3 ft 3 kts 266°
2026-05-04 15:49 52.31473 4.74337 3 ft 0 kts 266°
2026-05-04 15:50 52.31475 4.74327 3 ft 4 kts 281°
2026-05-04 15:50 52.31550 4.74294 3 ft 21 kts
2026-05-04 15:50 52.31708 4.74312 3 ft 23 kts
2026-05-04 15:51 52.31867 4.74324 3 ft 23 kts
2026-05-04 15:51 52.32016 4.74282 3 ft 23 kts 308°
2026-05-04 15:51 52.32037 4.74026 2 ft 23 kts 274°
2026-05-04 15:51 52.32048 4.73766 4 ft 23 kts 273°
2026-05-04 15:52 52.32057 4.73506 3 ft 23 kts 275°
2026-05-04 15:52 52.32136 4.73289 4 ft 23 kts 317°
2026-05-04 15:52 52.32257 4.73119 3 ft 23 kts 320°
2026-05-04 15:52 52.32379 4.72951 3 ft 23 kts 320°
2026-05-04 15:53 52.32499 4.72785 3 ft 23 kts 318°
2026-05-04 15:53 52.32618 4.72612 3 ft 23 kts 319°
2026-05-04 15:53 52.32731 4.72428 5 ft 23 kts 310°
2026-05-04 15:53 52.32836 4.72233 3 ft 23 kts 311°
2026-05-04 15:54 52.32940 4.72036 4 ft 23 kts 311°
2026-05-04 15:54 52.33046 4.71841 3 ft 23 kts 311°
2026-05-04 15:54 52.33139 4.71633 3 ft 23 kts 285°
2026-05-04 15:54 52.33071 4.71413 3 ft 23 kts 223°
2026-05-04 15:55 52.32951 4.71241 3 ft 23 kts 221°
2026-05-04 15:55 52.32866 4.71031 3 ft 23 kts 266°
2026-05-04 15:55 52.32927 4.70899 2 ft 14 kts 358°
2026-05-04 15:55 52.32955 4.70900 1 ft 0 kts
2026-05-04 15:58 52.33011 4.70906 1 ft 27 kts
2026-05-04 15:58 52.33431 4.70942 2 ft 93 kts
2026-05-04 15:58 52.34281 4.71017 1 ft 149 kts
2026-05-04 15:59 52.35429 4.71116 304 ft 168 kts
2026-05-04 15:59 52.36555 4.71224 1090 ft 160 kts
2026-05-04 15:59 52.37688 4.71346 1705 ft 167 kts
2026-05-04 15:59 52.38856 4.71419 2183 ft 170 kts 360°
2026-05-04 16:00 52.40063 4.71396 2588 ft 176 kts 356°
2026-05-04 16:00 52.41352 4.71405 2810 ft 196 kts
2026-05-04 16:00 52.42777 4.71579 3012 ft 215 kts
2026-05-04 16:00 52.44326 4.71639 3166 ft 229 kts 348°
2026-05-04 16:01 52.45704 4.70347 3428 ft 238 kts 309°
2026-05-04 16:01 52.46679 4.68076 3579 ft 252 kts 303°
2026-05-04 16:01 52.47683 4.65658 4073 ft 258 kts 304°
2026-05-04 16:01 52.48728 4.63244 4672 ft 261 kts 304°
2026-05-04 16:02 52.49802 4.60819 5273 ft 262 kts 304°
2026-05-04 16:02 52.50876 4.58436 5879 ft 264 kts 304°
2026-05-04 16:02 52.53118 4.53553 6923 ft 271 kts 304°
2026-05-04 16:03 52.54266 4.51086 7450 ft 273 kts 305°
2026-05-04 16:03 52.55428 4.48597 7961 ft 276 kts 305°
2026-05-04 16:03 52.56605 4.46073 8439 ft 279 kts 306°
2026-05-04 16:03 52.57796 4.43537 8969 ft 281 kts 305°
2026-05-04 16:04 52.58996 4.40975 9433 ft 285 kts 306°
2026-05-04 16:04 52.61441 4.35777 10249 ft 294 kts 305°
2026-05-04 16:04 52.62729 4.33036 10357 ft 310 kts 305°
2026-05-04 16:05 52.64078 4.30162 10485 ft 326 kts 306°
2026-05-04 16:05 52.65502 4.27131 10611 ft 343 kts 306°
2026-05-04 16:05 52.68555 4.20622 11308 ft 369 kts 306°
2026-05-04 16:06 52.70132 4.17257 12000 ft 372 kts 306°
2026-05-04 16:06 52.74380 4.08172 13964 ft 380 kts 306°
2026-05-04 16:07 52.76548 4.03520 14789 ft 385 kts 306°
2026-05-04 16:07 52.81526 3.92803 16527 ft 396 kts 306°
2026-05-04 16:08 52.83201 3.89188 17154 ft 397 kts 306°
2026-05-04 16:08 52.88311 3.78126 18719 ft 408 kts 306°
2026-05-04 16:09 52.91770 3.70609 19741 ft 411 kts 305°
2026-05-04 16:09 52.95244 3.63037 20749 ft 414 kts 305°
2026-05-04 16:10 52.98699 3.55487 21867 ft 413 kts 304°
2026-05-04 16:11 53.03991 3.43873 23047 ft 424 kts 304°
2026-05-04 16:11 53.05772 3.39954 23540 ft 425 kts 304°
2026-05-04 16:12 53.10299 3.27340 24501 ft 428 kts 288°
2026-05-04 16:12 53.12474 3.12901 25445 ft 432 kts 280°
2026-05-04 16:13 53.13740 3.03042 26027 ft 439 kts 280°
2026-05-04 16:13 53.15047 2.93012 26576 ft 445 kts 280°
2026-05-04 16:14 53.16366 2.82910 27246 ft 448 kts 280°
2026-05-04 16:14 53.17689 2.72711 27802 ft 453 kts 280°
2026-05-04 16:15 53.19682 2.57206 28628 ft 459 kts 279°
2026-05-04 16:16 53.21014 2.46727 29018 ft 465 kts 280°
2026-05-04 16:16 53.22993 2.30875 29734 ft 469 kts 279°
2026-05-04 16:17 53.24321 2.20135 30040 ft 475 kts 280°
2026-05-04 16:18 53.26308 2.03944 30839 ft 473 kts 280°
2026-05-04 16:18 53.26967 1.98516 30877 ft 478 kts 281°
2026-05-04 16:19 53.28945 1.82127 31610 ft 478 kts 281°
2026-05-04 16:19 53.30247 1.71225 32089 ft 478 kts 280°
2026-05-04 16:20 53.32178 1.54904 32805 ft 477 kts 280°
2026-05-04 16:20 53.33559 1.43964 33015 ft 484 kts 283°
2026-05-04 16:21 53.36013 1.27587 33786 ft 482 kts 284°
2026-05-04 16:22 53.37619 1.16655 34020 ft 486 kts 283°
2026-05-04 16:23 53.42291 0.83675 34049 ft 487 kts 283°
2026-05-04 16:25 53.46915 0.50331 34039 ft 491 kts 283°
2026-05-04 16:26 53.53353 0.13851 34039 ft 489 kts 294°
2026-05-04 16:28 53.59930 -0.12573 34046 ft 490 kts 294°
2026-05-04 16:29 53.68954 -0.49914 34054 ft 493 kts 293°
2026-05-04 16:31 53.75362 -0.76806 34045 ft 493 kts 293°
2026-05-04 16:32 53.82933 -1.09019 34038 ft 491 kts 293°
2026-05-04 16:33 53.87917 -1.30493 34031 ft 491 kts 292°
2026-05-04 16:34 53.91632 -1.46640 34021 ft 490 kts 292°
2026-05-04 16:35 53.98989 -1.78988 34034 ft 489 kts 292°
2026-05-04 16:36 54.02617 -1.95129 34031 ft 488 kts 292°
2026-05-04 16:37 54.06224 -2.11302 34027 ft 486 kts 292°
2026-05-04 16:38 54.10986 -2.32839 34036 ft 485 kts 292°
2026-05-04 16:39 54.16875 -2.59789 34043 ft 485 kts 291°
2026-05-04 16:40 54.21532 -2.81358 34037 ft 486 kts 291°
2026-05-04 16:41 54.27294 -3.08356 34043 ft 481 kts 291°
2026-05-04 16:43 54.32938 -3.35161 34051 ft 477 kts 291°
2026-05-04 16:43 54.36284 -3.51214 34051 ft 476 kts 290°
2026-05-04 16:45 54.42915 -3.83434 34049 ft 478 kts 290°
2026-05-04 16:46 54.48323 -4.10102 34059 ft 469 kts 289°
2026-05-04 16:47 54.52566 -4.31270 34055 ft 467 kts 289°
2026-05-04 16:48 54.56768 -4.52477 34076 ft 468 kts 289°
2026-05-04 16:49 54.60940 -4.73753 34060 ft 468 kts 289°
2026-05-04 16:50 54.65079 -4.95101 34074 ft 469 kts 289°
2026-05-04 16:51 54.68161 -5.11154 34075 ft 469 kts 288°
2026-05-04 16:52 54.72214 -5.32469 34080 ft 467 kts 288°
2026-05-04 16:53 54.75229 -5.48481 34085 ft 466 kts 288°
2026-05-04 16:54 54.79212 -5.69849 34075 ft 465 kts 288°
2026-05-04 16:55 54.85080 -6.01781 34077 ft 464 kts 288°
2026-05-04 16:56 54.89916 -6.28515 34070 ft 462 kts 287°
2026-05-04 16:57 54.92772 -6.44492 34070 ft 460 kts 287°
2026-05-04 16:58 54.96535 -6.65757 34089 ft 459 kts 287°
2026-05-04 17:00 55.02099 -6.97667 34098 ft 461 kts 287°
2026-05-04 17:01 55.06691 -7.24440 34100 ft 461 kts 286°
2026-05-04 17:02 55.10313 -7.45844 34090 ft 459 kts 286°
2026-05-04 17:03 55.12996 -7.61876 34103 ft 457 kts 286°
2026-05-04 17:03 55.15646 -7.77852 34084 ft 455 kts 286°
2026-05-04 17:04 55.19124 -7.99040 34099 ft 454 kts 285°
2026-05-04 17:05 55.22571 -8.20307 34107 ft 454 kts 285°
2026-05-04 17:06 55.25132 -8.36284 34113 ft 454 kts 285°
2026-05-04 17:07 55.27383 -8.50451 34089 ft 453 kts 285°
2026-05-04 17:07 55.29332 -8.62817 34088 ft 452 kts 285°
2026-05-04 17:08 55.31824 -8.78759 34091 ft 451 kts 285°
2026-05-04 17:09 55.33472 -8.89388 34093 ft 451 kts 284°
2026-05-04 17:09 55.35110 -9.00023 34096 ft 450 kts 284°
2026-05-04 17:10 55.39165 -9.26643 34095 ft 451 kts 284°
2026-05-04 17:11 55.40760 -9.37237 34096 ft 451 kts 284°
2026-05-04 17:12 55.43152 -9.53243 34098 ft 450 kts 284°
2026-05-04 17:13 55.46819 -9.78111 34097 ft 449 kts 283°
2026-05-04 17:14 55.50177 -9.99275 34096 ft 449 kts 290°
2026-05-04 17:15 55.54542 -10.13915 34108 ft 450 kts 298°
2026-05-04 17:16 55.60884 -10.32978 34104 ft 452 kts 298°
2026-05-04 17:17 55.67198 -10.52274 34104 ft 453 kts 298°
2026-05-04 17:18 55.73487 -10.71670 34106 ft 454 kts 298°
2026-05-04 17:19 55.79753 -10.91148 34108 ft 454 kts 297°
2026-05-04 17:20 55.85980 -11.10666 34112 ft 455 kts 297°
2026-05-04 17:20 55.90645 -11.25391 34104 ft 454 kts 297°
2026-05-04 17:21 55.96811 -11.44995 34105 ft 454 kts 297°
2026-05-04 17:22 55.99891 -11.54850 34113 ft 454 kts 297°
2026-05-04 17:23 56.06032 -11.74617 34120 ft 455 kts 297°
2026-05-04 17:24 56.10635 -11.89545 34112 ft 456 kts 297°
2026-05-04 17:25 56.16721 -12.09424 34117 ft 456 kts 297°
2026-05-04 17:26 56.22799 -12.29450 34119 ft 456 kts 297°
2026-05-04 17:27 56.30340 -12.54531 34124 ft 455 kts 297°
2026-05-04 17:28 56.36296 -12.74534 34122 ft 453 kts 296°
2026-05-04 17:29 56.45182 -13.04696 34134 ft 453 kts 296°
2026-05-04 17:31 56.52513 -13.29876 34144 ft 453 kts 296°
2026-05-04 17:32 56.59801 -13.55185 34124 ft 453 kts 296°
2026-05-04 17:33 56.65609 -13.75555 34149 ft 454 kts 296°
2026-05-04 17:34 56.71389 -13.96002 34155 ft 455 kts 296°
2026-05-04 17:35 56.78553 -14.21600 34153 ft 455 kts 296°
2026-05-04 17:36 56.81412 -14.31898 34140 ft 455 kts 295°
2026-05-04 17:36 56.84246 -14.42149 33855 ft 449 kts 296°
2026-05-04 17:36 56.85652 -14.47254 33368 ft 451 kts 296°
2026-05-04 17:37 56.87064 -14.52392 32823 ft 454 kts 296°
2026-05-04 17:37 56.88485 -14.57574 32349 ft 455 kts 296°
2026-05-04 17:37 56.89903 -14.62758 32168 ft 456 kts 296°
2026-05-04 17:38 56.92733 -14.73134 32158 ft 455 kts 296°
2026-05-04 17:38 56.95542 -14.83481 32155 ft 456 kts 295°
2026-05-04 17:39 56.99772 -14.99154 32160 ft 457 kts 295°
2026-05-04 17:39 57.02284 -15.09884 32178 ft 457 kts 292°
2026-05-04 17:40 57.04665 -15.20642 32168 ft 458 kts 291°
2026-05-04 17:40 57.07057 -15.31478 32165 ft 458 kts 292°
2026-05-04 17:41 57.09457 -15.42328 32174 ft 457 kts 292°
2026-05-04 17:41 57.11851 -15.53180 32166 ft 457 kts 291°
2026-05-04 17:42 57.14236 -15.64040 32168 ft 457 kts 291°
2026-05-04 17:42 57.16609 -15.74903 32175 ft 457 kts 291°
2026-05-04 17:43 57.18954 -15.85696 32180 ft 457 kts 291°
2026-05-04 17:43 57.21308 -15.96590 32184 ft 457 kts 291°
2026-05-04 17:44 57.23652 -16.07496 32179 ft 457 kts 291°
2026-05-04 17:44 57.25988 -16.18419 32179 ft 456 kts 291°
2026-05-04 17:45 57.28292 -16.29257 32168 ft 456 kts 291°
2026-05-04 17:45 57.30606 -16.40192 32176 ft 456 kts 291°
2026-05-04 17:46 57.32907 -16.51128 32187 ft 456 kts 291°
2026-05-04 17:46 57.35200 -16.62085 32189 ft 456 kts 291°
2026-05-04 17:47 57.37486 -16.73065 32200 ft 456 kts 291°
2026-05-04 17:47 57.39764 -16.84069 32194 ft 457 kts 291°
2026-05-04 17:48 57.42031 -16.95079 32189 ft 456 kts 291°
2026-05-04 17:48 57.44271 -17.06021 32183 ft 456 kts 291°
2026-05-04 17:49 57.46518 -17.17053 32189 ft 456 kts 291°
2026-05-04 17:49 57.48753 -17.28089 32196 ft 456 kts 290°
2026-05-04 17:50 57.50982 -17.39155 32197 ft 456 kts 290°
2026-05-04 17:50 57.53199 -17.50223 32199 ft 456 kts 290°
2026-05-04 17:51 57.55394 -17.61239 32203 ft 457 kts 290°
2026-05-04 17:51 57.57593 -17.72341 32190 ft 457 kts 290°
2026-05-04 17:52 57.59781 -17.83454 32206 ft 457 kts 290°
2026-05-04 17:52 57.61962 -17.94589 32211 ft 457 kts 290°
2026-05-04 17:53 57.64133 -18.05738 32220 ft 457 kts 290°
2026-05-04 17:53 57.66293 -18.16897 32214 ft 457 kts 290°
2026-05-04 17:54 57.68448 -18.28091 32204 ft 457 kts 290°
2026-05-04 17:54 57.70579 -18.39226 32219 ft 457 kts 290°
2026-05-04 17:55 57.72713 -18.50440 32194 ft 457 kts 289°
2026-05-04 17:55 57.74839 -18.61678 32222 ft 457 kts 289°
2026-05-04 17:56 57.76952 -18.72913 32216 ft 457 kts 289°
2026-05-04 17:56 57.79055 -18.84160 32208 ft 457 kts 289°
2026-05-04 17:57 57.81148 -18.95417 32228 ft 457 kts 289°
2026-05-04 17:57 57.83230 -19.06686 32220 ft 457 kts 289°
2026-05-04 17:58 57.85303 -19.17974 32215 ft 457 kts 289°
2026-05-04 17:58 57.87353 -19.29199 32232 ft 457 kts 289°
2026-05-04 17:59 57.89406 -19.40514 32224 ft 457 kts 289°
2026-05-04 18:00 57.92469 -19.57518 32226 ft 457 kts 289°
2026-05-04 18:00 57.94153 -19.66934 32228 ft 457 kts 289°
2026-05-04 18:01 57.96173 -19.78293 32230 ft 457 kts 288°
2026-05-04 18:01 57.98181 -19.89639 32221 ft 457 kts 288°
2026-05-04 18:02 58.00345 -20.07028 32227 ft 457 kts 275°
2026-05-04 18:02 58.00760 -20.18990 32237 ft 458 kts 274°
2026-05-04 18:03 58.01176 -20.30973 32242 ft 458 kts 274°
2026-05-04 18:03 58.01603 -20.42974 32232 ft 458 kts 275°
2026-05-04 18:04 58.02027 -20.54970 32237 ft 459 kts 274°
2026-05-04 18:05 58.02646 -20.72985 32232 ft 459 kts 274°
2026-05-04 18:05 58.03044 -20.85014 32240 ft 459 kts 274°
2026-05-04 18:06 58.03619 -21.03056 32240 ft 459 kts 274°
2026-05-04 18:06 58.03987 -21.15027 32245 ft 459 kts 274°
2026-05-04 18:07 58.04345 -21.27063 32249 ft 459 kts 274°
2026-05-04 18:07 58.04693 -21.39129 32248 ft 459 kts 274°
2026-05-04 18:08 58.05026 -21.51094 32244 ft 459 kts 273°
2026-05-04 18:08 58.05350 -21.63153 32253 ft 459 kts 273°
2026-05-04 18:09 58.05965 -21.87271 32245 ft 460 kts 273°
2026-05-04 18:10 58.06255 -21.99325 32235 ft 460 kts 273°
2026-05-04 18:10 58.06534 -22.11393 32252 ft 460 kts 273°
2026-05-04 18:11 58.06800 -22.23381 32258 ft 460 kts 272°
2026-05-04 18:11 58.07056 -22.35451 32257 ft 460 kts 272°
2026-05-04 18:12 58.07301 -22.47539 32254 ft 460 kts 272°
2026-05-04 18:12 58.07534 -22.59625 32257 ft 460 kts 272°
2026-05-04 18:13 58.07757 -22.71706 32251 ft 460 kts 272°
2026-05-04 18:14 58.08068 -22.89831 32259 ft 460 kts 272°
2026-05-04 18:14 58.08260 -23.01860 32274 ft 460 kts 272°
2026-05-04 18:15 58.08614 -23.26103 32265 ft 461 kts 272°
2026-05-04 18:16 58.08773 -23.38232 32256 ft 462 kts 271°
2026-05-04 18:16 58.08921 -23.50362 32269 ft 462 kts 271°
2026-05-04 18:17 58.09122 -23.68574 32268 ft 462 kts 271°
2026-05-04 18:18 58.09296 -23.86727 32267 ft 462 kts 271°
2026-05-04 18:18 58.09398 -23.98882 32269 ft 462 kts 271°
2026-05-04 18:19 58.09530 -24.17147 32273 ft 463 kts 271°
2026-05-04 18:19 58.09603 -24.29353 32273 ft 464 kts 271°
2026-05-04 18:20 58.09665 -24.41510 32273 ft 465 kts 270°
2026-05-04 18:20 58.09715 -24.53759 32279 ft 466 kts 271°
2026-05-04 18:21 58.09754 -24.66012 32274 ft 466 kts 270°
2026-05-04 18:21 58.09781 -24.78267 32268 ft 466 kts 270°
2026-05-04 18:22 58.09796 -24.90528 32278 ft 466 kts 270°
2026-05-04 18:22 58.09799 -25.02725 32277 ft 466 kts 270°
2026-05-04 18:23 58.09790 -25.15011 32280 ft 467 kts 270°
2026-05-04 18:23 58.09770 -25.27285 32280 ft 467 kts 270°
2026-05-04 18:24 58.09738 -25.39555 32277 ft 467 kts 270°
2026-05-04 18:24 58.09694 -25.51846 32285 ft 468 kts 270°
2026-05-04 18:25 58.09639 -25.64150 32287 ft 469 kts 270°
2026-05-04 18:25 58.09571 -25.76411 32286 ft 469 kts 269°
2026-05-04 18:26 58.09491 -25.88764 32286 ft 470 kts 269°
2026-05-04 18:26 58.09399 -26.01119 32289 ft 470 kts 269°
2026-05-04 18:27 58.09296 -26.13460 32284 ft 469 kts 269°
2026-05-04 18:27 58.09181 -26.25775 32285 ft 468 kts 269°
2026-05-04 18:28 58.09054 -26.38066 32287 ft 467 kts 269°
2026-05-04 18:28 58.08915 -26.50343 32291 ft 467 kts 269°
2026-05-04 18:29 58.08765 -26.62600 32288 ft 466 kts 269°
2026-05-04 18:29 58.08604 -26.74781 32289 ft 466 kts 269°
2026-05-04 18:30 58.08340 -26.93154 32298 ft 467 kts 269°
2026-05-04 18:31 58.08148 -27.05423 32298 ft 467 kts 269°
2026-05-04 18:31 58.07945 -27.17710 32297 ft 468 kts 269°
2026-05-04 18:32 58.07729 -27.30029 32299 ft 469 kts 268°
2026-05-04 18:32 58.07502 -27.42266 32297 ft 469 kts 269°
2026-05-04 18:33 58.07262 -27.54588 32301 ft 469 kts 268°
2026-05-04 18:33 58.07012 -27.66863 32302 ft 469 kts 268°
2026-05-04 18:34 58.06747 -27.79219 32303 ft 469 kts 268°
2026-05-04 18:34 58.06472 -27.91535 32301 ft 469 kts 268°
2026-05-04 18:35 58.06184 -28.03859 32302 ft 469 kts 268°
2026-05-04 18:35 58.05886 -28.16088 32295 ft 469 kts 268°
2026-05-04 18:36 58.05576 -28.28396 32304 ft 469 kts 268°
2026-05-04 18:36 58.05253 -28.40699 32307 ft 469 kts 268°
2026-05-04 18:37 58.04917 -28.53042 32305 ft 469 kts 268°
2026-05-04 18:37 58.04570 -28.65349 32307 ft 470 kts 268°
2026-05-04 18:38 58.04212 -28.77653 32299 ft 470 kts 268°
2026-05-04 18:38 58.03843 -28.89895 32318 ft 469 kts 268°
2026-05-04 18:39 58.03461 -29.02200 32308 ft 469 kts 268°
2026-05-04 18:39 58.03067 -29.14484 32310 ft 469 kts 268°
2026-05-04 18:40 58.02661 -29.26784 32313 ft 469 kts 267°
2026-05-04 18:40 58.02245 -29.39047 32316 ft 468 kts 267°
2026-05-04 18:41 58.01816 -29.51305 32307 ft 468 kts 268°
2026-05-04 18:41 58.01377 -29.63552 32316 ft 468 kts 267°
2026-05-04 18:42 58.00925 -29.75812 32314 ft 468 kts 267°
2026-05-04 18:42 58.00463 -29.88079 32315 ft 468 kts 267°
2026-05-04 18:43 58.00210 -30.00275 32315 ft 467 kts 274°
2026-05-04 18:43 58.01030 -30.12402 32305 ft 466 kts 281°
2026-05-04 18:44 58.02143 -30.24434 32320 ft 466 kts 281°
2026-05-04 18:44 58.03224 -30.36484 32318 ft 466 kts 281°
2026-05-04 18:45 58.04277 -30.48557 32316 ft 466 kts 280°
2026-05-04 18:45 58.05306 -30.60555 32319 ft 466 kts 280°
2026-05-04 18:46 58.06330 -30.72647 32319 ft 466 kts 280°
2026-05-04 18:46 58.07343 -30.84744 32321 ft 466 kts 280°
2026-05-04 18:47 58.08345 -30.96849 32312 ft 466 kts 280°
2026-05-04 18:47 58.09337 -31.08973 32322 ft 465 kts 280°
2026-05-04 18:48 58.10313 -31.21045 32319 ft 464 kts 280°
2026-05-04 18:48 58.11267 -31.33011 32323 ft 463 kts 280°
2026-05-04 18:49 58.12217 -31.45057 32321 ft 462 kts 279°
2026-05-04 18:49 58.13153 -31.57081 32322 ft 461 kts 279°
2026-05-04 18:50 58.14077 -31.69094 32325 ft 461 kts 279°
2026-05-04 18:50 58.14988 -31.81103 32314 ft 460 kts 279°
2026-05-04 18:51 58.15883 -31.93041 32322 ft 460 kts 279°
2026-05-04 18:51 58.16627 -32.03089 32329 ft 460 kts 279°
2026-05-04 18:52 58.17644 -32.17016 32319 ft 459 kts 279°
2026-05-04 18:52 58.18367 -32.27053 32320 ft 459 kts 279°
2026-05-04 18:53 58.19215 -32.38966 32322 ft 458 kts 279°
2026-05-04 18:53 58.20056 -32.50937 32320 ft 458 kts 278°
2026-05-04 18:54 58.20886 -32.62921 32313 ft 458 kts 278°
2026-05-04 18:54 58.21706 -32.74927 32316 ft 457 kts 278°
2026-05-04 18:55 58.22508 -32.86835 32313 ft 457 kts 278°
2026-05-04 18:55 58.23696 -33.04798 32309 ft 457 kts 278°
2026-05-04 18:56 58.24472 -33.16772 32314 ft 456 kts 278°
2026-05-04 18:56 58.25237 -33.28730 32310 ft 456 kts 278°
2026-05-04 18:57 58.25986 -33.40612 32313 ft 455 kts 278°
2026-05-04 18:57 58.26727 -33.52558 32315 ft 455 kts 277°
2026-05-04 18:58 58.27456 -33.64502 32316 ft 455 kts 277°
2026-05-04 18:58 58.28175 -33.76451 32309 ft 455 kts 277°
2026-05-04 18:59 58.28879 -33.88348 32314 ft 455 kts 277°
2026-05-04 18:59 58.29574 -34.00297 32306 ft 455 kts 277°
2026-05-04 19:00 58.30257 -34.12244 32310 ft 454 kts 277°
2026-05-04 19:00 58.30930 -34.24193 32318 ft 454 kts 277°
2026-05-04 19:01 58.31593 -34.36152 32299 ft 454 kts 277°
2026-05-04 19:01 58.32242 -34.48081 32299 ft 454 kts 277°
2026-05-04 19:02 58.32881 -34.60038 32300 ft 454 kts 277°
2026-05-04 19:02 58.33508 -34.71996 32299 ft 454 kts 277°
2026-05-04 19:03 58.34120 -34.83866 32294 ft 454 kts 277°
2026-05-04 19:03 58.34726 -34.95828 32292 ft 454 kts 277°
2026-05-04 19:04 58.35320 -35.07798 32299 ft 454 kts 277°
2026-05-04 19:04 58.35903 -35.19780 32294 ft 454 kts 277°
2026-05-04 19:05 58.36476 -35.31779 32298 ft 454 kts 277°
2026-05-04 19:05 58.37038 -35.43780 32291 ft 455 kts 277°
2026-05-04 19:06 58.37586 -35.55715 32291 ft 455 kts 277°
2026-05-04 19:06 58.38125 -35.67738 32299 ft 455 kts 277°
2026-05-04 19:07 58.38654 -35.79754 32272 ft 454 kts 278°
2026-05-04 19:07 58.39170 -35.91748 32284 ft 454 kts 278°
2026-05-04 19:08 58.39674 -36.03735 32291 ft 454 kts 278°
2026-05-04 19:08 58.40164 -36.15658 32290 ft 454 kts 277°
2026-05-04 19:09 58.40647 -36.27666 32292 ft 454 kts 277°
2026-05-04 19:09 58.41117 -36.39669 32287 ft 454 kts 277°
2026-05-04 19:10 58.41577 -36.51685 32290 ft 454 kts 277°
2026-05-04 19:10 58.42023 -36.63633 32258 ft 454 kts 278°
2026-05-04 19:11 58.42461 -36.75658 32281 ft 454 kts 279°
2026-05-04 19:11 58.42887 -36.87682 32287 ft 454 kts 279°
2026-05-04 19:12 58.43506 -37.05718 32281 ft 454 kts 279°
2026-05-04 19:13 58.43903 -37.17745 32279 ft 454 kts 278°
2026-05-04 19:13 58.44288 -37.29695 32283 ft 454 kts 278°
2026-05-04 19:14 58.44663 -37.41717 32281 ft 454 kts 278°
2026-05-04 19:14 58.45027 -37.53748 32275 ft 454 kts 279°
2026-05-04 19:15 58.45380 -37.65778 32322 ft 456 kts 279°
2026-05-04 19:15 58.45554 -37.71828 32598 ft 455 kts 279°
2026-05-04 19:15 58.45722 -37.77842 32998 ft 452 kts 279°
2026-05-04 19:15 58.45886 -37.83828 33313 ft 451 kts 279°
2026-05-04 19:16 58.46050 -37.89837 33285 ft 453 kts 279°
2026-05-04 19:16 58.46367 -38.01813 33267 ft 448 kts 279°
2026-05-04 19:17 58.46670 -38.13700 33266 ft 447 kts 279°
2026-05-04 19:17 58.46964 -38.25575 33266 ft 447 kts 279°
2026-05-04 19:18 58.47246 -38.37445 33260 ft 446 kts 278°
2026-05-04 19:18 58.47514 -38.49214 33269 ft 446 kts 278°
2026-05-04 19:18 58.47646 -38.55157 33408 ft 448 kts 278°
2026-05-04 19:19 58.47775 -38.61104 33737 ft 447 kts 278°
2026-05-04 19:19 58.47899 -38.67036 34127 ft 444 kts 278°
2026-05-04 19:19 58.48022 -38.72941 34209 ft 447 kts 278°
2026-05-04 19:20 58.48261 -38.84819 34262 ft 447 kts 278°
2026-05-04 19:20 58.48484 -38.96614 34255 ft 442 kts 278°
2026-05-04 19:21 58.48697 -39.08340 34262 ft 441 kts 278°
2026-05-04 19:21 58.48900 -39.20039 34254 ft 440 kts 277°
2026-05-04 19:22 58.49092 -39.31747 34261 ft 440 kts 277°
2026-05-04 19:22 58.49274 -39.43466 34256 ft 441 kts 277°
2026-05-04 19:23 58.49445 -39.55215 34249 ft 442 kts 277°
2026-05-04 19:23 58.49606 -39.67000 34251 ft 443 kts 277°
2026-05-04 19:24 58.49755 -39.78728 34253 ft 444 kts 277°
2026-05-04 19:24 58.49897 -39.90552 34250 ft 445 kts 277°
2026-05-04 19:25 58.50178 -40.02330 34242 ft 440 kts 282°
2026-05-04 19:25 58.51201 -40.13832 34249 ft 438 kts 284°
2026-05-04 19:26 58.52238 -40.25320 34246 ft 438 kts 284°
2026-05-04 19:26 58.53252 -40.36838 34241 ft 438 kts 283°
2026-05-04 19:27 58.54248 -40.48358 34242 ft 438 kts 283°
2026-05-04 19:27 58.55225 -40.59790 34236 ft 438 kts 283°
2026-05-04 19:28 58.56198 -40.71300 34236 ft 437 kts 283°
2026-05-04 19:28 58.57160 -40.82810 34236 ft 437 kts 283°
2026-05-04 19:29 58.58112 -40.94313 34203 ft 437 kts 282°
2026-05-04 19:29 58.59050 -41.05774 34228 ft 437 kts 282°
2026-05-04 19:30 58.59982 -41.17308 34231 ft 437 kts 281°
2026-05-04 19:30 58.60902 -41.28830 34233 ft 437 kts 281°
2026-05-04 19:31 58.61815 -41.40385 34235 ft 438 kts 281°
2026-05-04 19:31 58.62716 -41.51930 34224 ft 438 kts 281°
2026-05-04 19:32 58.63607 -41.63503 34224 ft 438 kts 281°
2026-05-04 19:32 58.64488 -41.75068 34220 ft 438 kts 281°
2026-05-04 19:33 58.65359 -41.86645 34217 ft 438 kts 281°
2026-05-04 19:33 58.66219 -41.98227 34228 ft 438 kts 280°
2026-05-04 19:34 58.67068 -42.09802 34215 ft 438 kts 280°
2026-05-04 19:34 58.67902 -42.21319 34208 ft 437 kts 280°
2026-05-04 19:35 58.68730 -42.32903 34213 ft 437 kts 280°
2026-05-04 19:35 58.69547 -42.44483 34219 ft 437 kts 280°
2026-05-04 19:36 58.70354 -42.56071 34206 ft 437 kts 280°
2026-05-04 19:36 58.71149 -42.67647 34210 ft 437 kts 280°
2026-05-04 19:37 58.71934 -42.79229 34221 ft 437 kts 279°
2026-05-04 19:37 58.72708 -42.90819 34183 ft 437 kts 278°
2026-05-04 19:38 58.73474 -43.02430 34202 ft 438 kts 278°
2026-05-04 19:38 58.74103 -43.12109 34202 ft 438 kts 278°
2026-05-04 19:39 58.74853 -43.23778 34208 ft 440 kts 278°
2026-05-04 19:39 58.75594 -43.35488 34203 ft 441 kts 278°
2026-05-04 19:40 58.76326 -43.47230 34197 ft 441 kts 278°
2026-05-04 19:40 58.77048 -43.58983 34208 ft 442 kts 277°
2026-05-04 19:41 58.77760 -43.70762 34180 ft 442 kts 277°
2026-05-04 19:41 58.78456 -43.82459 34189 ft 442 kts 277°
2026-05-04 19:42 58.79147 -43.94237 34178 ft 442 kts 277°
2026-05-04 19:42 58.79827 -44.06030 34186 ft 442 kts 276°
2026-05-04 19:43 58.80495 -44.17825 34180 ft 443 kts 276°
2026-05-04 19:43 58.81157 -44.29672 34186 ft 444 kts 276°
2026-05-04 19:44 58.81807 -44.41523 34175 ft 444 kts 276°
2026-05-04 19:44 58.82442 -44.53304 34164 ft 444 kts 276°
2026-05-04 19:45 58.83071 -44.65161 34169 ft 444 kts 276°
2026-05-04 19:45 58.83689 -44.77030 34161 ft 444 kts 276°
2026-05-04 19:46 58.84295 -44.88899 34140 ft 444 kts 275°
2026-05-04 19:46 58.84888 -45.00690 34149 ft 444 kts 275°
2026-05-04 19:47 58.85473 -45.12566 34157 ft 444 kts 274°
2026-05-04 19:47 58.86047 -45.24452 34146 ft 445 kts 274°
2026-05-04 19:48 58.86612 -45.36365 34126 ft 445 kts 274°
2026-05-04 19:48 58.87165 -45.48273 34133 ft 445 kts 274°
2026-05-04 19:49 58.87707 -45.60195 34125 ft 445 kts 274°
2026-05-04 19:49 58.88236 -45.72053 34115 ft 445 kts 274°
2026-05-04 19:50 58.88757 -45.83989 34100 ft 445 kts 274°
2026-05-04 19:50 58.89269 -45.95924 34120 ft 446 kts 273°
2026-05-04 19:51 58.89767 -46.07875 34111 ft 446 kts 273°
2026-05-04 19:51 58.90256 -46.19855 34087 ft 447 kts 272°
2026-05-04 19:52 58.90735 -46.31854 34084 ft 447 kts 272°
2026-05-04 19:52 58.91203 -46.43862 34082 ft 448 kts 272°
2026-05-04 19:53 58.91661 -46.55890 34082 ft 448 kts 272°
2026-05-04 19:53 58.92104 -46.67844 34082 ft 448 kts 272°
2026-05-04 19:54 58.92539 -46.79868 34069 ft 448 kts 272°
2026-05-04 19:54 58.92964 -46.91918 34051 ft 449 kts 271°
2026-05-04 19:55 58.93379 -47.03995 34054 ft 450 kts 271°
2026-05-04 19:55 58.93783 -47.16121 34059 ft 452 kts 271°
2026-05-04 19:56 58.94178 -47.28308 34050 ft 454 kts 271°
2026-05-04 19:56 58.94563 -47.40552 34033 ft 456 kts 271°
2026-05-04 19:57 58.94935 -47.52760 34030 ft 456 kts 271°
2026-05-04 19:57 58.95298 -47.65031 34039 ft 456 kts 271°
2026-05-04 19:58 58.95649 -47.77292 34012 ft 455 kts 271°
2026-05-04 19:58 58.95988 -47.89536 34017 ft 454 kts 271°
2026-05-04 19:59 58.96314 -48.01712 34020 ft 454 kts 270°
2026-05-04 19:59 58.96628 -48.13939 34000 ft 454 kts 270°
2026-05-04 20:00 58.96932 -48.26174 34001 ft 454 kts 270°
2026-05-04 20:00 58.97224 -48.38426 34009 ft 455 kts 270°
2026-05-04 20:01 58.97506 -48.50696 34004 ft 456 kts 270°
2026-05-04 20:01 58.97775 -48.62967 33991 ft 456 kts 270°
2026-05-04 20:02 58.98034 -48.75269 33986 ft 456 kts 270°
2026-05-04 20:02 58.98279 -48.87483 33986 ft 457 kts 270°
2026-05-04 20:03 58.98515 -48.99800 33961 ft 458 kts 269°
2026-05-04 20:03 58.98740 -49.12206 33962 ft 461 kts 269°
2026-05-04 20:04 58.98954 -49.24673 33974 ft 463 kts 269°
2026-05-04 20:04 58.99158 -49.37198 33947 ft 465 kts 269°
2026-05-04 20:05 58.99350 -49.49746 33945 ft 466 kts 269°
2026-05-04 20:05 58.99530 -49.62226 33942 ft 465 kts 269°
2026-05-04 20:06 58.99698 -49.74770 33941 ft 465 kts 268°
2026-05-04 20:06 58.99854 -49.87299 33925 ft 464 kts 268°
2026-05-04 20:07 58.99999 -49.99801 33935 ft 464 kts 267°
2026-05-04 20:07 59.00255 -50.12336 33923 ft 465 kts 269°
2026-05-04 20:08 59.00601 -50.24801 33907 ft 466 kts 269°
2026-05-04 20:08 59.00933 -50.37353 33905 ft 466 kts 269°
2026-05-04 20:09 59.01235 -50.49940 33904 ft 467 kts 268°
2026-05-04 20:09 59.01517 -50.62511 33888 ft 467 kts 268°
2026-05-04 20:10 59.01786 -50.75127 33901 ft 467 kts 268°
2026-05-04 20:10 59.02043 -50.87743 33887 ft 468 kts 268°
2026-05-04 20:11 59.02289 -51.00368 33884 ft 468 kts 268°
2026-05-04 20:11 59.02521 -51.12922 33879 ft 469 kts 267°
2026-05-04 20:12 59.02744 -51.25686 33869 ft 471 kts 267°
2026-05-04 20:12 59.02953 -51.38329 33869 ft 472 kts 267°
2026-05-04 20:13 59.03152 -51.51100 33868 ft 473 kts 267°
2026-05-04 20:13 59.03339 -51.63904 33880 ft 474 kts 267°
2026-05-04 20:14 59.03513 -51.76697 33873 ft 474 kts 266°
2026-05-04 20:14 59.03674 -51.89494 33848 ft 474 kts 266°
2026-05-04 20:15 59.03822 -52.02216 33850 ft 473 kts 266°
2026-05-04 20:15 59.03958 -52.14995 33851 ft 473 kts 266°
2026-05-04 20:16 59.04081 -52.27774 33853 ft 473 kts 266°
2026-05-04 20:16 59.04192 -52.40540 33853 ft 472 kts 266°
2026-05-04 20:17 59.04290 -52.53315 33833 ft 472 kts 266°
2026-05-04 20:17 59.04375 -52.66064 33833 ft 472 kts 265°
2026-05-04 20:18 59.04447 -52.78734 33822 ft 472 kts 265°
2026-05-04 20:18 59.04507 -52.91471 33820 ft 471 kts 265°
2026-05-04 20:19 59.04555 -53.04196 33822 ft 471 kts 265°
2026-05-04 20:19 59.04590 -53.16935 33844 ft 472 kts 265°
2026-05-04 20:20 59.04612 -53.29731 33814 ft 474 kts 264°
2026-05-04 20:20 59.04621 -53.42499 33810 ft 476 kts 264°
2026-05-04 20:21 59.04618 -53.55371 33804 ft 477 kts 264°
2026-05-04 20:21 59.04591 -53.74756 33794 ft 478 kts 264°
2026-05-04 20:22 59.04558 -53.87684 33793 ft 479 kts 264°
2026-05-04 20:22 59.04511 -54.00610 33801 ft 479 kts 263°
2026-05-04 20:23 59.04451 -54.13562 33782 ft 479 kts 263°
2026-05-04 20:23 59.04379 -54.26400 33799 ft 479 kts 263°
2026-05-04 20:24 59.04292 -54.39358 33785 ft 480 kts 263°
2026-05-04 20:24 59.04193 -54.52332 33772 ft 481 kts 263°
2026-05-04 20:25 59.04080 -54.65318 33772 ft 481 kts 263°
2026-05-04 20:25 59.03955 -54.78316 33780 ft 482 kts 263°
2026-05-04 20:26 59.03816 -54.91327 33757 ft 482 kts 262°
2026-05-04 20:26 59.03691 -55.02163 33752 ft 482 kts 262°
2026-05-04 20:27 59.03529 -55.15189 33755 ft 481 kts 262°
2026-05-04 20:27 59.03354 -55.28183 33755 ft 481 kts 262°
2026-05-04 20:28 59.03165 -55.41173 33753 ft 482 kts 262°
2026-05-04 20:28 59.02964 -55.54115 33740 ft 483 kts 262°
2026-05-04 20:29 59.02749 -55.67160 33746 ft 483 kts 262°
2026-05-04 20:29 59.02520 -55.80220 33735 ft 484 kts 261°
2026-05-04 20:30 59.02279 -55.93280 33733 ft 484 kts 261°
2026-05-04 20:30 59.02024 -56.06345 33733 ft 484 kts 261°
2026-05-04 20:31 59.01756 -56.19427 33727 ft 484 kts 261°
2026-05-04 20:31 59.01474 -56.32498 33737 ft 484 kts 261°
2026-05-04 20:32 59.01182 -56.45480 33737 ft 486 kts 260°
2026-05-04 20:32 59.00872 -56.58597 33720 ft 487 kts 260°
2026-05-04 20:33 59.00550 -56.71728 33718 ft 488 kts 260°
2026-05-04 20:33 59.00214 -56.84869 33718 ft 488 kts 260°
2026-05-04 20:34 58.99864 -56.98028 33722 ft 488 kts 259°
2026-05-04 20:34 58.99500 -57.11188 33724 ft 488 kts 259°
2026-05-04 20:35 58.99123 -57.24372 33705 ft 489 kts 259°
2026-05-04 20:35 58.98736 -57.37436 33707 ft 488 kts 259°
2026-05-04 20:36 58.98333 -57.50585 33715 ft 489 kts 258°
2026-05-04 20:36 58.97914 -57.63793 33696 ft 491 kts 258°
2026-05-04 20:37 58.97482 -57.77025 33706 ft 491 kts 258°
2026-05-04 20:37 58.97038 -57.90263 33703 ft 493 kts 258°
2026-05-04 20:38 58.97034 -58.03669 33694 ft 505 kts 267°
2026-05-04 20:38 58.98186 -58.17227 33711 ft 512 kts 273°
2026-05-04 20:39 58.99493 -58.30742 33701 ft 512 kts 272°
2026-05-04 20:39 59.00760 -58.44336 33707 ft 512 kts 272°
2026-05-04 20:40 59.01982 -58.57935 33720 ft 511 kts 271°
2026-05-04 20:40 59.03179 -58.71535 33703 ft 511 kts 271°
2026-05-04 20:41 59.04365 -58.85143 33734 ft 510 kts 271°
2026-05-04 20:41 59.05534 -58.98740 33708 ft 511 kts 271°
2026-05-04 20:42 59.06685 -59.12276 33705 ft 511 kts 271°
2026-05-04 20:42 59.07829 -59.25919 33723 ft 512 kts 271°
2026-05-04 20:43 59.08962 -59.39589 33708 ft 512 kts 271°
2026-05-04 20:43 59.10082 -59.53282 33711 ft 513 kts 270°
2026-05-04 20:44 59.11187 -59.66991 33711 ft 513 kts 270°
2026-05-04 20:44 59.12278 -59.80706 33721 ft 513 kts 270°
2026-05-04 20:45 59.13356 -59.94445 33731 ft 513 kts 270°
2026-05-04 20:45 59.14418 -60.08189 33721 ft 512 kts 270°
2026-05-04 20:46 59.15457 -60.21833 33721 ft 512 kts 270°
2026-05-04 20:46 59.16488 -60.35553 33731 ft 511 kts 270°
2026-05-04 20:47 59.17503 -60.49279 33728 ft 511 kts 269°
2026-05-04 20:47 59.18504 -60.62998 33750 ft 511 kts 269°
2026-05-04 20:48 59.19490 -60.76744 33747 ft 512 kts 269°
2026-05-04 20:48 59.20458 -60.90441 33756 ft 513 kts 269°
2026-05-04 20:49 59.21423 -61.04263 33758 ft 514 kts 269°
2026-05-04 20:49 59.22041 -61.18081 33777 ft 509 kts 264°
2026-05-04 20:50 59.22373 -61.31898 33774 ft 509 kts 263°
2026-05-04 20:50 59.22693 -61.45707 33788 ft 509 kts 263°
2026-05-04 20:51 59.23023 -61.59519 33786 ft 509 kts 263°
2026-05-04 20:51 59.23350 -61.73329 33798 ft 508 kts 263°
2026-05-04 20:52 59.23661 -61.87116 33799 ft 508 kts 263°
2026-05-04 20:52 59.23955 -62.00819 33828 ft 507 kts 263°
2026-05-04 20:53 59.24235 -62.14582 33810 ft 506 kts 263°
2026-05-04 20:53 59.24500 -62.28297 33849 ft 504 kts 263°
2026-05-04 20:54 59.24748 -62.42006 33834 ft 505 kts 263°
2026-05-04 20:54 59.24982 -62.55723 33846 ft 505 kts 263°
2026-05-04 20:55 59.25202 -62.69361 33846 ft 506 kts 263°
2026-05-04 20:55 59.25408 -62.83112 33861 ft 506 kts 263°
2026-05-04 20:56 59.25601 -62.96902 33859 ft 507 kts 263°
2026-05-04 20:56 59.25779 -63.10617 33853 ft 508 kts 263°
2026-05-04 20:57 59.25943 -63.24425 33856 ft 508 kts 263°
2026-05-04 20:57 59.26093 -63.38233 33884 ft 508 kts 263°
2026-05-04 20:58 59.26228 -63.52025 33856 ft 507 kts 263°
2026-05-04 20:58 59.26352 -63.65790 33863 ft 505 kts 262°
2026-05-04 20:59 59.26454 -63.79499 33890 ft 504 kts 263°
2026-05-04 20:59 59.26542 -63.93103 33856 ft 503 kts 263°
2026-05-04 21:00 59.26620 -64.06801 33856 ft 503 kts 262°
2026-05-04 21:00 59.26685 -64.20445 33864 ft 501 kts 262°
2026-05-04 21:01 59.26546 -64.34001 33831 ft 495 kts 259°
2026-05-04 21:01 59.26187 -64.47292 33861 ft 491 kts 258°
2026-05-04 21:02 59.25799 -64.60620 33848 ft 492 kts 258°
2026-05-04 21:02 59.25419 -64.74007 33840 ft 494 kts 259°
2026-05-04 21:03 59.25038 -64.87406 33838 ft 494 kts 259°
2026-05-04 21:03 59.24643 -65.00818 33819 ft 495 kts 258°
2026-05-04 21:04 59.24439 -65.07552 33973 ft 497 kts 259°
2026-05-04 21:04 59.24232 -65.14304 34223 ft 497 kts 259°
2026-05-04 21:04 59.24024 -65.21043 34538 ft 495 kts 259°
2026-05-04 21:04 59.23813 -65.27747 34831 ft 495 kts 259°
2026-05-04 21:05 59.23598 -65.34450 35083 ft 495 kts 259°
2026-05-04 21:05 59.23379 -65.41169 35314 ft 495 kts 259°
2026-05-04 21:05 59.23155 -65.47882 35561 ft 495 kts 259°
2026-05-04 21:05 59.22930 -65.54514 35733 ft 497 kts 259°
2026-05-04 21:06 59.22459 -65.68037 35802 ft 498 kts 259°
2026-05-04 21:06 59.21985 -65.81443 35795 ft 492 kts 259°
2026-05-04 21:07 59.21498 -65.94755 35798 ft 490 kts 259°
2026-05-04 21:07 59.20995 -66.08034 35807 ft 490 kts 259°
2026-05-04 21:08 59.20480 -66.21285 35803 ft 490 kts 259°
2026-05-04 21:08 59.19954 -66.34475 35819 ft 490 kts 259°
2026-05-04 21:09 59.19414 -66.47736 35818 ft 490 kts 259°
2026-05-04 21:09 59.18859 -66.60999 35820 ft 490 kts 259°
2026-05-04 21:10 59.18291 -66.74257 35825 ft 490 kts 259°
2026-05-04 21:10 59.17712 -66.87444 35835 ft 491 kts 258°
2026-05-04 21:11 59.17116 -67.00700 35856 ft 491 kts 259°
2026-05-04 21:11 59.16507 -67.13967 35839 ft 490 kts 259°
2026-05-04 21:12 59.15886 -67.27191 35832 ft 489 kts 258°
2026-05-04 21:12 59.15252 -67.40390 35831 ft 488 kts 258°
2026-05-04 21:13 59.14607 -67.53548 35829 ft 487 kts 258°
2026-05-04 21:13 59.13949 -67.66686 35838 ft 487 kts 258°
2026-05-04 21:14 59.13282 -67.79718 35877 ft 487 kts 258°
2026-05-04 21:14 59.12597 -67.92854 35850 ft 487 kts 258°
2026-05-04 21:15 59.11898 -68.06001 35852 ft 487 kts 258°
2026-05-04 21:15 59.11308 -68.16893 35841 ft 487 kts 258°
2026-05-04 21:16 59.10585 -68.30017 35853 ft 488 kts 258°
2026-05-04 21:16 59.09728 -68.45269 35877 ft 488 kts 258°
2026-05-04 21:17 59.09098 -68.56279 35862 ft 489 kts 258°
2026-05-04 21:17 59.08334 -68.69430 35864 ft 489 kts 258°
2026-05-04 21:18 59.07560 -68.82509 35859 ft 489 kts 258°
2026-05-04 21:18 59.06769 -68.95643 35863 ft 489 kts 257°
2026-05-04 21:19 59.05964 -69.08773 35862 ft 489 kts 257°
2026-05-04 21:19 59.05146 -69.21898 35878 ft 490 kts 257°
2026-05-04 21:20 59.04313 -69.35055 35862 ft 490 kts 257°
2026-05-04 21:20 59.03466 -69.48201 35873 ft 490 kts 257°
2026-05-04 21:21 59.02607 -69.61334 35871 ft 490 kts 257°
2026-05-04 21:21 59.01740 -69.74383 35863 ft 490 kts 257°
2026-05-04 21:22 59.00856 -69.87499 35860 ft 490 kts 257°
2026-05-04 21:22 58.99959 -70.00621 35863 ft 490 kts 257°
2026-05-04 21:23 58.99134 -70.13753 35859 ft 491 kts 258°
2026-05-04 21:23 58.98357 -70.26902 35853 ft 490 kts 258°
2026-05-04 21:24 58.97569 -70.39951 35852 ft 490 kts 257°
2026-05-04 21:24 58.96751 -70.53080 35859 ft 490 kts 257°
2026-05-04 21:25 58.95913 -70.66203 35857 ft 491 kts 257°
2026-05-04 21:25 58.95061 -70.79330 35850 ft 491 kts 257°
2026-05-04 21:26 58.94195 -70.92469 35844 ft 491 kts 257°
2026-05-04 21:26 58.93324 -71.05492 35842 ft 491 kts 257°
2026-05-04 21:27 58.92427 -71.18686 35842 ft 490 kts 257°
2026-05-04 21:27 58.91524 -71.31772 35857 ft 490 kts 257°
2026-05-04 21:28 58.90608 -71.44847 35826 ft 490 kts 257°
2026-05-04 21:28 58.89686 -71.57838 35827 ft 490 kts 257°
2026-05-04 21:29 58.88743 -71.70890 35828 ft 489 kts 256°
2026-05-04 21:29 58.87789 -71.83913 35822 ft 489 kts 257°
2026-05-04 21:30 58.86829 -71.96851 35816 ft 489 kts 256°
2026-05-04 21:30 58.85849 -72.09869 35814 ft 489 kts 257°
2026-05-04 21:31 58.84357 -72.29346 35802 ft 488 kts 256°
2026-05-04 21:32 58.83349 -72.42289 35788 ft 487 kts 256°
2026-05-04 21:32 58.82329 -72.55216 35791 ft 487 kts 256°
2026-05-04 21:33 58.81302 -72.68055 35786 ft 486 kts 256°
2026-05-04 21:33 58.80257 -72.80944 35791 ft 487 kts 256°
2026-05-04 21:34 58.79198 -72.93841 35773 ft 487 kts 256°
2026-05-04 21:34 58.78127 -73.06728 35771 ft 486 kts 256°
2026-05-04 21:35 58.77044 -73.19588 35769 ft 487 kts 256°
2026-05-04 21:35 58.75947 -73.32470 35764 ft 487 kts 256°
2026-05-04 21:36 58.74836 -73.45339 35765 ft 487 kts 256°
2026-05-04 21:36 58.73713 -73.58206 35757 ft 487 kts 256°
2026-05-04 21:37 58.72584 -73.70977 35756 ft 487 kts 256°
2026-05-04 21:37 58.71436 -73.83814 35757 ft 487 kts 256°
2026-05-04 21:38 58.70274 -73.96657 35746 ft 486 kts 256°
2026-05-04 21:38 58.69102 -74.09471 35745 ft 486 kts 256°
2026-05-04 21:39 58.67914 -74.22294 35754 ft 487 kts 256°
2026-05-04 21:39 58.66715 -74.35102 35741 ft 487 kts 256°
2026-05-04 21:40 58.65504 -74.47890 35743 ft 487 kts 256°
2026-05-04 21:40 58.64280 -74.60662 35729 ft 487 kts 256°
2026-05-04 21:41 58.63043 -74.73446 35733 ft 486 kts 256°
2026-05-04 21:41 58.61797 -74.86166 35851 ft 490 kts 256°
2026-05-04 21:41 58.61162 -74.92590 36089 ft 490 kts 256°
2026-05-04 21:42 58.60526 -74.99009 36353 ft 489 kts 256°
2026-05-04 21:42 58.59887 -75.05423 36598 ft 490 kts 256°
2026-05-04 21:42 58.59243 -75.11843 36784 ft 490 kts 256°
2026-05-04 21:42 58.58594 -75.18275 36996 ft 491 kts 256°
2026-05-04 21:43 58.57942 -75.24716 37194 ft 491 kts 256°
2026-05-04 21:43 58.57295 -75.31066 37415 ft 492 kts 256°
2026-05-04 21:43 58.56637 -75.37490 37604 ft 492 kts 256°
2026-05-04 21:44 58.55303 -75.50408 37731 ft 496 kts 256°
2026-05-04 21:44 58.53957 -75.63320 37714 ft 493 kts 256°
2026-05-04 21:45 58.52605 -75.76157 37721 ft 489 kts 256°
2026-05-04 21:45 58.51251 -75.88875 37725 ft 486 kts 256°
2026-05-04 21:46 58.49890 -76.01530 37731 ft 485 kts 256°
2026-05-04 21:46 58.48517 -76.14165 37720 ft 485 kts 256°
2026-05-04 21:47 58.47128 -76.26822 37732 ft 487 kts 256°
2026-05-04 21:47 58.45731 -76.39434 37725 ft 489 kts 255°
2026-05-04 21:48 58.44307 -76.52173 37718 ft 491 kts 255°
2026-05-04 21:48 58.42863 -76.64957 37720 ft 492 kts 255°
2026-05-04 21:49 58.41407 -76.77732 37726 ft 493 kts 255°
2026-05-04 21:49 58.39947 -76.90426 37715 ft 493 kts 255°
2026-05-04 21:50 58.38463 -77.03201 37700 ft 493 kts 255°
2026-05-04 21:50 58.36966 -77.15967 37710 ft 493 kts 255°
2026-05-04 21:51 58.35460 -77.28698 37712 ft 492 kts 255°
2026-05-04 21:51 58.33943 -77.41401 37709 ft 491 kts 255°
2026-05-04 21:52 58.32415 -77.54077 37707 ft 491 kts 255°
2026-05-04 21:52 58.30876 -77.66729 37701 ft 490 kts 255°
2026-05-04 21:53 58.29337 -77.79267 37701 ft 490 kts 255°
2026-05-04 21:53 58.27776 -77.91875 37700 ft 490 kts 255°
2026-05-04 21:54 58.26202 -78.04478 37702 ft 489 kts 254°
2026-05-04 21:54 58.24618 -78.17050 37693 ft 489 kts 254°
2026-05-04 21:55 58.23021 -78.29615 37700 ft 490 kts 254°
2026-05-04 21:55 58.21409 -78.42185 37692 ft 490 kts 254°
2026-05-04 21:56 58.19785 -78.54748 37690 ft 490 kts 254°
2026-05-04 21:56 58.18150 -78.67289 37683 ft 490 kts 254°
2026-05-04 21:57 58.16511 -78.79757 37681 ft 490 kts 254°
2026-05-04 21:57 58.14849 -78.92293 37689 ft 491 kts 254°
2026-05-04 21:58 58.13172 -79.04835 37677 ft 491 kts 254°
2026-05-04 21:58 58.11482 -79.17372 37674 ft 492 kts 253°
2026-05-04 21:59 58.09780 -79.29895 37673 ft 492 kts 253°
2026-05-04 21:59 58.08065 -79.42416 37673 ft 492 kts 253°
2026-05-04 22:00 58.06348 -79.54849 37691 ft 492 kts 253°
2026-05-04 22:00 58.04606 -79.67364 37668 ft 493 kts 253°
2026-05-04 22:01 58.02851 -79.79871 37667 ft 493 kts 253°
2026-05-04 22:01 58.01087 -79.92359 37661 ft 492 kts 253°
2026-05-04 22:02 57.99298 -80.04822 37663 ft 492 kts 252°
2026-05-04 22:02 57.97409 -80.17229 37653 ft 492 kts 252°
2026-05-04 22:03 57.95491 -80.29589 37655 ft 492 kts 251°
2026-05-04 22:03 57.93584 -80.41869 37656 ft 491 kts 251°
2026-05-04 22:04 57.91989 -80.52113 37649 ft 491 kts 252°
2026-05-04 22:04 57.90062 -80.64434 37644 ft 490 kts 252°
2026-05-04 22:05 57.88130 -80.76701 37640 ft 490 kts 251°
2026-05-04 22:05 57.86183 -80.88963 37648 ft 490 kts 251°
2026-05-04 22:06 57.84223 -81.01222 37642 ft 489 kts 252°
2026-05-04 22:06 57.82265 -81.13384 37632 ft 489 kts 252°
2026-05-04 22:07 57.80287 -81.25586 37632 ft 489 kts 252°
2026-05-04 22:07 57.78293 -81.37792 37634 ft 489 kts 251°
2026-05-04 22:08 57.76290 -81.49974 37644 ft 489 kts 250°
2026-05-04 22:08 57.74274 -81.62155 37633 ft 489 kts 251°
2026-05-04 22:09 57.72243 -81.74319 37633 ft 490 kts 251°
2026-05-04 22:09 57.70201 -81.86490 37632 ft 490 kts 251°
2026-05-04 22:10 57.68161 -81.98554 37628 ft 490 kts 250°
2026-05-04 22:10 57.66095 -82.10705 37620 ft 491 kts 250°
2026-05-04 22:11 57.64017 -82.22845 37608 ft 491 kts 249°
2026-05-04 22:11 57.61923 -82.34975 37615 ft 491 kts 250°
2026-05-04 22:12 57.59813 -82.47123 37610 ft 491 kts 250°
2026-05-04 22:12 57.57698 -82.59225 37613 ft 492 kts 251°
2026-05-04 22:13 57.55566 -82.71337 37608 ft 492 kts 250°
2026-05-04 22:13 57.53422 -82.83431 37620 ft 492 kts 250°
2026-05-04 22:14 57.51280 -82.95455 37615 ft 492 kts 250°
2026-05-04 22:14 57.49108 -83.07560 37614 ft 493 kts 251°
2026-05-04 22:15 57.46927 -83.19647 37617 ft 493 kts 249°
2026-05-04 22:15 57.44735 -83.31708 37614 ft 493 kts 250°
2026-05-04 22:16 57.42531 -83.43745 37627 ft 492 kts 249°
2026-05-04 22:16 57.40331 -83.55691 37616 ft 492 kts 250°
2026-05-04 22:17 57.38109 -83.67680 37619 ft 491 kts 248°
2026-05-04 22:17 57.35880 -83.79641 37620 ft 491 kts 249°
2026-05-04 22:18 57.33639 -83.91584 37604 ft 491 kts 248°
2026-05-04 22:18 57.31386 -84.03511 37618 ft 491 kts 249°
2026-05-04 22:19 57.29122 -84.15427 37619 ft 491 kts 249°
2026-05-04 22:19 57.26846 -84.27341 37613 ft 492 kts 249°
2026-05-04 22:20 57.24556 -84.39244 37610 ft 492 kts 248°
2026-05-04 22:20 57.22254 -84.51131 37610 ft 492 kts 249°
2026-05-04 22:21 57.19954 -84.62937 37611 ft 492 kts 249°
2026-05-04 22:21 57.17632 -84.74789 37613 ft 492 kts 249°
2026-05-04 22:22 57.15295 -84.86645 37608 ft 492 kts 249°
2026-05-04 22:22 57.12945 -84.98496 37608 ft 492 kts 249°
2026-05-04 22:23 57.10586 -85.10320 37611 ft 492 kts 249°
2026-05-04 22:23 57.08213 -85.22149 37611 ft 492 kts 249°
2026-05-04 22:24 57.05843 -85.33879 37616 ft 493 kts 249°
2026-05-04 22:24 57.03447 -85.45677 37613 ft 493 kts 249°
2026-05-04 22:25 57.01038 -85.57477 37619 ft 493 kts 249°
2026-05-04 22:25 56.98615 -85.69265 37615 ft 493 kts 249°
2026-05-04 22:26 56.96184 -85.81027 37619 ft 493 kts 248°
2026-05-04 22:26 56.93741 -85.92775 37612 ft 493 kts 248°
2026-05-04 22:27 56.91287 -86.04513 37626 ft 494 kts 248°
2026-05-04 22:27 56.88818 -86.16248 37619 ft 494 kts 248°
2026-05-04 22:28 56.86355 -86.27887 37621 ft 494 kts 248°
2026-05-04 22:28 56.83861 -86.39614 37606 ft 495 kts 248°
2026-05-04 22:29 56.81354 -86.51329 37627 ft 495 kts 248°
2026-05-04 22:29 56.78835 -86.63034 37632 ft 495 kts 248°
2026-05-04 22:30 56.76305 -86.74724 37622 ft 496 kts 247°
2026-05-04 22:30 56.73779 -86.86329 37617 ft 496 kts 248°
2026-05-04 22:31 56.71224 -86.98000 37633 ft 496 kts 248°
2026-05-04 22:31 56.68659 -87.09652 37619 ft 496 kts 247°
2026-05-04 22:32 56.66075 -87.21324 37617 ft 496 kts 248°
2026-05-04 22:32 56.63485 -87.32959 37616 ft 497 kts 247°
2026-05-04 22:33 56.60885 -87.44575 37614 ft 497 kts 247°
2026-05-04 22:33 56.58288 -87.56114 37618 ft 497 kts 246°
2026-05-04 22:34 56.55664 -87.67708 37623 ft 497 kts 247°
2026-05-04 22:34 56.53027 -87.79295 37629 ft 497 kts 247°
2026-05-04 22:35 56.50376 -87.90883 37622 ft 497 kts 247°
2026-05-04 22:35 56.47716 -88.02447 37622 ft 497 kts 246°
2026-05-04 22:36 56.45044 -88.13995 37619 ft 497 kts 247°
2026-05-04 22:36 56.42383 -88.25438 37630 ft 497 kts 246°
2026-05-04 22:37 56.39694 -88.36939 37626 ft 497 kts 246°
2026-05-04 22:37 56.36990 -88.48442 37629 ft 498 kts 246°
2026-05-04 22:38 56.34275 -88.59929 37627 ft 498 kts 246°
2026-05-04 22:38 56.31548 -88.71407 37629 ft 498 kts 246°
2026-05-04 22:39 56.28813 -88.82861 37626 ft 498 kts 246°
2026-05-04 22:39 56.26063 -88.94312 37624 ft 498 kts 246°
2026-05-04 22:40 56.23307 -89.05731 37622 ft 498 kts 246°
2026-05-04 22:40 56.20560 -89.17054 37633 ft 497 kts 246°
2026-05-04 22:41 56.17786 -89.28424 37626 ft 497 kts 246°
2026-05-04 22:41 56.14999 -89.39793 37632 ft 497 kts 246°
2026-05-04 22:42 56.12208 -89.51116 37637 ft 497 kts 245°
2026-05-04 22:42 56.09404 -89.62440 37627 ft 497 kts 245°
2026-05-04 22:43 56.06588 -89.73750 37621 ft 497 kts 245°
2026-05-04 22:43 56.03763 -89.85043 37623 ft 497 kts 245°
2026-05-04 22:44 56.00929 -89.96318 37628 ft 497 kts 245°
2026-05-04 22:44 55.97752 -90.07216 37624 ft 497 kts 239°
2026-05-04 22:45 55.94232 -90.17862 37623 ft 499 kts 238°
2026-05-04 22:45 55.88908 -90.33922 37626 ft 502 kts 239°
2026-05-04 22:46 55.85363 -90.44660 37621 ft 503 kts 239°
2026-05-04 22:46 55.81815 -90.55384 37625 ft 503 kts 239°
2026-05-04 22:47 55.78257 -90.66090 37622 ft 503 kts 239°
2026-05-04 22:47 55.74713 -90.76700 37629 ft 502 kts 239°
2026-05-04 22:48 55.71139 -90.87351 37625 ft 501 kts 238°
2026-05-04 22:48 55.67571 -90.97935 37626 ft 500 kts 239°
2026-05-04 22:49 55.63991 -91.08513 37628 ft 499 kts 238°
2026-05-04 22:49 55.60409 -91.19048 37633 ft 499 kts 238°
2026-05-04 22:50 55.56821 -91.29555 37628 ft 499 kts 238°
2026-05-04 22:50 55.53219 -91.40059 37631 ft 500 kts 238°
2026-05-04 22:51 55.49602 -91.50560 37638 ft 500 kts 238°
2026-05-04 22:51 55.46003 -91.60965 37634 ft 501 kts 238°
2026-05-04 22:52 55.42363 -91.71441 37632 ft 500 kts 238°
2026-05-04 22:52 55.39335 -91.80123 37641 ft 500 kts 238°
2026-05-04 22:53 55.35681 -91.90558 37643 ft 500 kts 238°
2026-05-04 22:53 55.32020 -92.00970 37646 ft 500 kts 238°
2026-05-04 22:54 55.28354 -92.11351 37643 ft 500 kts 238°
2026-05-04 22:54 55.24684 -92.21701 37650 ft 500 kts 238°
2026-05-04 22:55 55.20999 -92.32046 37655 ft 500 kts 238°
2026-05-04 22:55 55.17333 -92.42296 37658 ft 500 kts 238°
2026-05-04 22:56 55.13628 -92.52613 37649 ft 500 kts 238°
2026-05-04 22:56 55.09922 -92.62889 37648 ft 500 kts 238°
2026-05-04 22:57 55.06204 -92.73155 37659 ft 500 kts 238°
2026-05-04 22:57 55.02482 -92.83387 37656 ft 500 kts 238°
2026-05-04 22:58 54.98765 -92.93565 37666 ft 500 kts 237°
2026-05-04 22:58 54.95021 -93.03775 37669 ft 500 kts 238°
2026-05-04 22:59 54.91267 -93.13970 37672 ft 500 kts 237°
2026-05-04 22:59 54.87501 -93.24153 37671 ft 500 kts 237°
2026-05-04 23:00 54.83749 -93.34257 37686 ft 500 kts 237°
2026-05-04 23:00 54.79973 -93.44387 37684 ft 500 kts 237°
2026-05-04 23:01 54.76185 -93.54507 37695 ft 500 kts 237°
2026-05-04 23:01 54.72382 -93.64624 37694 ft 500 kts 237°
2026-05-04 23:02 54.68581 -93.74695 37705 ft 500 kts 237°
2026-05-04 23:02 54.64767 -93.84759 37702 ft 500 kts 237°
2026-05-04 23:03 54.60972 -93.94734 37710 ft 500 kts 237°
2026-05-04 23:03 54.57139 -94.04767 37712 ft 500 kts 237°
2026-05-04 23:04 54.53298 -94.14779 37718 ft 500 kts 237°
2026-05-04 23:04 54.49455 -94.24759 37726 ft 500 kts 237°
2026-05-04 23:05 54.45601 -94.34726 37724 ft 501 kts 237°
2026-05-04 23:05 54.41735 -94.44683 37728 ft 501 kts 237°
2026-05-04 23:06 54.37863 -94.54616 37742 ft 501 kts 237°
2026-05-04 23:06 54.34006 -94.64474 37739 ft 501 kts 237°
2026-05-04 23:07 54.30118 -94.74372 37743 ft 500 kts 237°
2026-05-04 23:07 54.26230 -94.84223 37743 ft 500 kts 237°
2026-05-04 23:08 54.22327 -94.94079 37756 ft 499 kts 237°
2026-05-04 23:08 54.18427 -95.03888 37759 ft 499 kts 237°
2026-05-04 23:09 54.14517 -95.13681 37757 ft 499 kts 236°
2026-05-04 23:09 54.10595 -95.23469 37754 ft 500 kts 237°
2026-05-04 23:10 54.06666 -95.33240 37754 ft 500 kts 237°
2026-05-04 23:10 54.02730 -95.42988 37763 ft 500 kts 237°
2026-05-04 23:11 53.98803 -95.52675 37770 ft 501 kts 237°
2026-05-04 23:11 53.94840 -95.62415 37771 ft 501 kts 236°
2026-05-04 23:12 53.90869 -95.72132 37778 ft 501 kts 236°
2026-05-04 23:12 53.86886 -95.81832 37769 ft 501 kts 237°
2026-05-04 23:13 53.82895 -95.91528 37787 ft 501 kts 236°
2026-05-04 23:13 53.78898 -96.01203 37774 ft 501 kts 237°
2026-05-04 23:14 53.74898 -96.10839 37789 ft 500 kts 236°
2026-05-04 23:14 53.70898 -96.20445 37787 ft 499 kts 236°
2026-05-04 23:15 53.66914 -96.29970 37787 ft 499 kts 236°
2026-05-04 23:15 53.62890 -96.39557 37791 ft 500 kts 236°
2026-05-04 23:16 53.58867 -96.49109 37810 ft 500 kts 236°
2026-05-04 23:16 53.54851 -96.58600 37799 ft 501 kts 236°
2026-05-04 23:17 53.50808 -96.68126 37797 ft 501 kts 236°
2026-05-04 23:17 53.46752 -96.77646 37787 ft 501 kts 236°
2026-05-04 23:18 53.42690 -96.87141 37804 ft 501 kts 236°
2026-05-04 23:18 53.38612 -96.96640 37812 ft 501 kts 236°
2026-05-04 23:19 53.34559 -97.06043 37816 ft 501 kts 236°
2026-05-04 23:19 53.30473 -97.15490 37795 ft 501 kts 236°
2026-05-04 23:20 53.26380 -97.24916 37809 ft 501 kts 236°
2026-05-04 23:20 53.22275 -97.34335 37813 ft 502 kts 236°
2026-05-04 23:21 53.18157 -97.43750 37815 ft 502 kts 235°
2026-05-04 23:21 53.14031 -97.53146 37812 ft 502 kts 236°
2026-05-04 23:22 53.09921 -97.62474 37832 ft 503 kts 235°
2026-05-04 23:22 53.05777 -97.71842 37827 ft 503 kts 236°
2026-05-04 23:23 53.01623 -97.81198 37843 ft 503 kts 235°
2026-05-04 23:23 52.97458 -97.90546 37838 ft 503 kts 236°
2026-05-04 23:24 52.93285 -97.99876 37847 ft 503 kts 236°
2026-05-04 23:24 52.89104 -98.09188 37845 ft 503 kts 235°
2026-05-04 23:25 52.84916 -98.18484 37848 ft 503 kts 235°
2026-05-04 23:25 52.80730 -98.27741 37854 ft 502 kts 235°
2026-05-04 23:26 52.76569 -98.36910 37852 ft 502 kts 235°
2026-05-04 23:26 52.72375 -98.46116 37852 ft 502 kts 235°
2026-05-04 23:27 52.68174 -98.55306 37836 ft 501 kts 235°
2026-05-04 23:27 52.63963 -98.64484 37854 ft 500 kts 235°
2026-05-04 23:28 52.59788 -98.73552 37846 ft 500 kts 235°
2026-05-04 23:28 52.55580 -98.82659 37862 ft 500 kts 235°
2026-05-04 23:29 52.51367 -98.91744 37860 ft 499 kts 235°
2026-05-04 23:29 52.47150 -99.00805 37838 ft 499 kts 235°
2026-05-04 23:30 52.42929 -99.09843 37860 ft 499 kts 235°
2026-05-04 23:30 52.38703 -99.18858 37872 ft 499 kts 235°
2026-05-04 23:31 52.34468 -99.27863 37867 ft 499 kts 235°
2026-05-04 23:31 52.30255 -99.36790 37874 ft 499 kts 235°
2026-05-04 23:32 52.26003 -99.45765 37874 ft 498 kts 235°
2026-05-04 23:32 52.21752 -99.54709 37879 ft 498 kts 235°
2026-05-04 23:33 52.17495 -99.63634 37880 ft 498 kts 235°
2026-05-04 23:33 52.13233 -99.72539 37880 ft 498 kts 235°
2026-05-04 23:34 52.08993 -99.81367 37880 ft 498 kts 234°
2026-05-04 23:34 52.04722 -99.90233 37872 ft 497 kts 234°
2026-05-04 23:35 52.00450 -99.99067 37886 ft 497 kts 234°
2026-05-04 23:35 51.95951 -100.07605 37886 ft 498 kts 231°
2026-05-04 23:36 51.91368 -100.15932 37886 ft 498 kts 231°
2026-05-04 23:36 51.86753 -100.24299 37887 ft 498 kts 231°
2026-05-04 23:37 51.82142 -100.32683 37878 ft 498 kts 231°
2026-05-04 23:37 51.77541 -100.41044 37886 ft 498 kts 231°
2026-05-04 23:38 51.72934 -100.49394 37885 ft 498 kts 231°
2026-05-04 23:38 51.68319 -100.57726 37882 ft 498 kts 231°
2026-05-04 23:39 51.63725 -100.65989 37883 ft 498 kts 231°
2026-05-04 23:39 51.59094 -100.74293 37870 ft 498 kts 231°
2026-05-04 23:40 51.55214 -100.81230 37877 ft 498 kts 231°
2026-05-04 23:40 51.50580 -100.89489 37874 ft 497 kts 231°
2026-05-04 23:41 51.45973 -100.97673 37871 ft 497 kts 231°
2026-05-04 23:41 51.41330 -101.05892 37873 ft 497 kts 231°
2026-05-04 23:42 51.36683 -101.14094 37880 ft 497 kts 231°
2026-05-04 23:42 51.32037 -101.22269 37872 ft 497 kts 231°
2026-05-04 23:43 51.27378 -101.30439 37871 ft 497 kts 231°
2026-05-04 23:43 51.22712 -101.38594 37883 ft 497 kts 231°
2026-05-04 23:44 51.18043 -101.46725 37876 ft 496 kts 231°
2026-05-04 23:44 51.13406 -101.54778 37879 ft 496 kts 231°
2026-05-04 23:45 51.08742 -101.62850 37889 ft 495 kts 231°
2026-05-04 23:45 51.04070 -101.70913 37888 ft 495 kts 231°
2026-05-04 23:46 50.99388 -101.78966 37889 ft 496 kts 231°
2026-05-04 23:46 50.94700 -101.87003 37862 ft 495 kts 231°
2026-05-04 23:47 50.90046 -101.94955 37887 ft 495 kts 231°
2026-05-04 23:47 50.85361 -102.02937 37891 ft 495 kts 231°
2026-05-04 23:48 50.80672 -102.10900 37899 ft 495 kts 231°
2026-05-04 23:48 50.75970 -102.18861 37898 ft 495 kts 231°
2026-05-04 23:49 50.71261 -102.26805 37893 ft 495 kts 231°
2026-05-04 23:49 50.66545 -102.34739 37909 ft 495 kts 231°
2026-05-04 23:50 50.61858 -102.42598 37914 ft 495 kts 231°
2026-05-04 23:50 50.57143 -102.50481 37914 ft 494 kts 231°
2026-05-04 23:51 50.52422 -102.58348 37916 ft 494 kts 231°
2026-05-04 23:51 50.47700 -102.66192 37908 ft 493 kts 231°
2026-05-04 23:52 50.42974 -102.74018 37924 ft 493 kts 231°
2026-05-04 23:52 50.38246 -102.81824 37927 ft 493 kts 231°
2026-05-04 23:53 50.33544 -102.89562 37930 ft 493 kts 231°
2026-05-04 23:53 50.28803 -102.97342 37933 ft 493 kts 231°
2026-05-04 23:54 50.24058 -103.05104 37938 ft 493 kts 231°
2026-05-04 23:54 50.19302 -103.12859 37942 ft 494 kts 231°
2026-05-04 23:55 50.14543 -103.20595 37949 ft 494 kts 230°
2026-05-04 23:56 50.07423 -103.32127 37954 ft 494 kts 231°
2026-05-04 23:56 50.02648 -103.39830 37954 ft 494 kts 230°
2026-05-04 23:57 49.97874 -103.47508 37961 ft 494 kts 230°
2026-05-04 23:57 49.93092 -103.55177 37961 ft 493 kts 230°
2026-05-04 23:58 49.88308 -103.62824 37962 ft 493 kts 230°
2026-05-04 23:58 49.83525 -103.70448 37941 ft 493 kts 230°
2026-05-04 23:59 49.78748 -103.78037 37964 ft 492 kts 230°
2026-05-04 23:59 49.73964 -103.85617 37975 ft 492 kts 230°
2026-05-05 00:00 49.69210 -103.93126 37974 ft 491 kts 230°
2026-05-05 00:00 49.64412 -104.00682 37983 ft 491 kts 230°
2026-05-05 00:01 49.59619 -104.08208 37958 ft 491 kts 230°
2026-05-05 00:01 49.54854 -104.15666 37968 ft 491 kts 230°
2026-05-05 00:02 49.50054 -104.23160 37995 ft 491 kts 230°
2026-05-05 00:02 49.45253 -104.30631 37986 ft 491 kts 230°
2026-05-05 00:03 49.40443 -104.38094 37988 ft 491 kts 230°
2026-05-05 00:03 49.35617 -104.45559 37984 ft 491 kts 230°
2026-05-05 00:04 49.30831 -104.52943 37991 ft 491 kts 230°
2026-05-05 00:04 49.26002 -104.60370 37988 ft 491 kts 230°
2026-05-05 00:05 49.21163 -104.67790 37998 ft 491 kts 230°
2026-05-05 00:05 49.16334 -104.75174 37962 ft 491 kts 230°
2026-05-05 00:06 49.11527 -104.82504 37997 ft 491 kts 230°
2026-05-05 00:06 49.06685 -104.89867 37999 ft 491 kts 230°
2026-05-05 00:07 49.01840 -104.97214 38006 ft 491 kts 229°
2026-05-05 00:07 48.96737 -105.04177 38012 ft 495 kts 224°
2026-05-05 00:08 48.91375 -105.10675 37996 ft 495 kts 223°
2026-05-05 00:08 48.85982 -105.17183 38006 ft 495 kts 223°
2026-05-05 00:09 48.80606 -105.23707 38009 ft 495 kts 223°
2026-05-05 00:09 48.75234 -105.30240 38006 ft 495 kts 223°
2026-05-05 00:10 48.69853 -105.36769 38010 ft 495 kts 223°
2026-05-05 00:10 48.64477 -105.43269 37996 ft 494 kts 223°
2026-05-05 00:11 48.59101 -105.49750 38007 ft 494 kts 223°
2026-05-05 00:11 48.53725 -105.56212 38008 ft 494 kts 223°
2026-05-05 00:12 48.48378 -105.62623 38011 ft 494 kts 223°
2026-05-05 00:12 48.42986 -105.69070 37996 ft 493 kts 223°
2026-05-05 00:13 48.37611 -105.75475 38002 ft 492 kts 223°
2026-05-05 00:13 48.32283 -105.81809 38004 ft 491 kts 223°
2026-05-05 00:14 48.26930 -105.88157 38002 ft 490 kts 223°
2026-05-05 00:14 48.21573 -105.94492 38006 ft 490 kts 223°
2026-05-05 00:15 48.16215 -106.00809 37978 ft 489 kts 224°
2026-05-05 00:15 48.10874 -106.07088 38000 ft 488 kts 224°
2026-05-05 00:16 48.05528 -106.13359 38003 ft 487 kts 223°
2026-05-05 00:16 48.00226 -106.19562 38004 ft 487 kts 223°
2026-05-05 00:17 47.94888 -106.25788 37997 ft 487 kts 223°
2026-05-05 00:17 47.89539 -106.32005 37965 ft 486 kts 224°
2026-05-05 00:18 47.84201 -106.38198 37994 ft 486 kts 224°
2026-05-05 00:18 47.78863 -106.44378 37999 ft 485 kts 224°
2026-05-05 00:19 47.73533 -106.50530 38000 ft 485 kts 224°
2026-05-05 00:19 47.68242 -106.56620 37996 ft 485 kts 224°
2026-05-05 00:20 47.62908 -106.62742 37992 ft 485 kts 224°
2026-05-05 00:20 47.57571 -106.68852 37991 ft 485 kts 224°
2026-05-05 00:21 47.52232 -106.74949 37994 ft 485 kts 223°
2026-05-05 00:21 47.46879 -106.81045 37992 ft 485 kts 223°
2026-05-05 00:22 47.41534 -106.87116 37953 ft 485 kts 224°
2026-05-05 00:22 47.36221 -106.93132 37976 ft 483 kts 224°
2026-05-05 00:23 47.30894 -106.99150 37979 ft 482 kts 224°
2026-05-05 00:23 47.25568 -107.05152 37980 ft 481 kts 224°
2026-05-05 00:24 47.20253 -107.11128 37984 ft 480 kts 224°
2026-05-05 00:24 47.14939 -107.17085 37955 ft 480 kts 224°
2026-05-05 00:25 47.09633 -107.23019 37962 ft 479 kts 224°
2026-05-05 00:25 47.04321 -107.28943 37967 ft 479 kts 224°
2026-05-05 00:26 46.99912 -107.33850 37965 ft 478 kts 224°
2026-05-05 00:26 46.93711 -107.40733 37961 ft 478 kts 224°
2026-05-05 00:27 46.88441 -107.46565 37955 ft 477 kts 224°
2026-05-05 00:27 46.83135 -107.52424 37957 ft 477 kts 224°
2026-05-05 00:28 46.78728 -107.57279 37960 ft 478 kts 224°
2026-05-05 00:28 46.73411 -107.63123 37951 ft 478 kts 224°
2026-05-05 00:29 46.68086 -107.68960 37961 ft 478 kts 224°
2026-05-05 00:29 46.62760 -107.74783 37951 ft 479 kts 224°
2026-05-05 00:30 46.57459 -107.80566 37955 ft 479 kts 223°
2026-05-05 00:30 46.52124 -107.86370 37962 ft 479 kts 223°
2026-05-05 00:31 46.46778 -107.92170 37960 ft 480 kts 223°
2026-05-05 00:31 46.41421 -107.97969 37930 ft 480 kts 223°
2026-05-05 00:32 46.36065 -108.03752 37927 ft 480 kts 223°
2026-05-05 00:32 46.30715 -108.09514 37971 ft 479 kts 223°
2026-05-05 00:33 46.25363 -108.15264 37971 ft 478 kts 223°
2026-05-05 00:33 46.20020 -108.20989 37976 ft 478 kts 223°
2026-05-05 00:34 46.14709 -108.26667 37970 ft 477 kts 223°
2026-05-05 00:34 46.09366 -108.32367 37963 ft 477 kts 223°
2026-05-05 00:35 46.04030 -108.38044 37996 ft 477 kts 223°
2026-05-05 00:35 45.98692 -108.43710 37999 ft 477 kts 223°
2026-05-05 00:36 45.93349 -108.49367 37985 ft 477 kts 223°
2026-05-05 00:36 45.88004 -108.55015 38007 ft 478 kts 223°
2026-05-05 00:37 45.82646 -108.60660 38003 ft 477 kts 222°
2026-05-05 00:37 45.77020 -108.65699 38015 ft 483 kts 215°
2026-05-05 00:38 45.71096 -108.70279 38002 ft 483 kts 214°
2026-05-05 00:38 45.65176 -108.74853 37994 ft 483 kts 214°
2026-05-05 00:39 45.59264 -108.79457 37980 ft 483 kts 214°
2026-05-05 00:39 45.53399 -108.84034 37992 ft 483 kts 214°
2026-05-05 00:40 45.47502 -108.88627 37995 ft 483 kts 214°
2026-05-05 00:40 45.41605 -108.93208 37987 ft 483 kts 214°
2026-05-05 00:41 45.35705 -108.97779 37961 ft 482 kts 214°
2026-05-05 00:41 45.29819 -109.02327 37978 ft 481 kts 214°
2026-05-05 00:42 45.23968 -109.06838 37984 ft 481 kts 214°
2026-05-05 00:42 45.18085 -109.11363 37984 ft 481 kts 214°
2026-05-05 00:43 45.12191 -109.15886 37980 ft 481 kts 214°
2026-05-05 00:43 45.06305 -109.20391 37984 ft 480 kts 214°
2026-05-05 00:44 45.00428 -109.24879 37986 ft 480 kts 214°
2026-05-05 00:44 44.94583 -109.29334 37977 ft 480 kts 214°
2026-05-05 00:45 44.88699 -109.33807 37984 ft 480 kts 214°
2026-05-05 00:45 44.82824 -109.38259 37945 ft 477 kts 213°
2026-05-05 00:46 44.76981 -109.42681 37969 ft 476 kts 213°
2026-05-05 00:46 44.71146 -109.47088 37985 ft 476 kts 213°
2026-05-05 00:47 44.65303 -109.51488 37966 ft 475 kts 213°
2026-05-05 00:47 44.59486 -109.55860 37971 ft 474 kts 213°
2026-05-05 00:48 44.53683 -109.60209 37961 ft 471 kts 213°
2026-05-05 00:48 44.47943 -109.64501 37959 ft 471 kts 212°
2026-05-05 00:49 44.42167 -109.68812 37956 ft 470 kts 212°
2026-05-05 00:49 44.36393 -109.73110 37939 ft 470 kts 212°
2026-05-05 00:50 44.30626 -109.77397 37938 ft 470 kts 212°
2026-05-05 00:50 44.24855 -109.81654 37901 ft 468 kts 212°
2026-05-05 00:51 44.19104 -109.85919 37879 ft 468 kts 212°
2026-05-05 00:51 44.13344 -109.90191 37897 ft 470 kts 212°
2026-05-05 00:52 44.07551 -109.94459 37877 ft 472 kts 212°
2026-05-05 00:52 44.01770 -109.98700 37863 ft 473 kts 212°
2026-05-05 00:53 43.95911 -110.02894 37853 ft 474 kts 211°
2026-05-05 00:53 43.89983 -110.06934 37855 ft 473 kts 210°
2026-05-05 00:54 43.84066 -110.10934 37844 ft 472 kts 210°
2026-05-05 00:54 43.78168 -110.14944 37848 ft 471 kts 210°
2026-05-05 00:55 43.72337 -110.18915 37842 ft 468 kts 210°
2026-05-05 00:55 43.66493 -110.22894 37847 ft 468 kts 210°
2026-05-05 00:56 43.60658 -110.26857 37833 ft 467 kts 210°
2026-05-05 00:56 43.54827 -110.30807 37834 ft 467 kts 210°
2026-05-05 00:57 43.49000 -110.34742 37832 ft 466 kts 210°
2026-05-05 00:57 43.43174 -110.38670 37819 ft 465 kts 210°
2026-05-05 00:58 43.37347 -110.42594 37823 ft 466 kts 210°
2026-05-05 00:58 43.31551 -110.46484 37796 ft 466 kts 210°
2026-05-05 00:59 43.25710 -110.50399 37796 ft 466 kts 210°
2026-05-05 00:59 43.19878 -110.54313 37760 ft 466 kts 210°
2026-05-05 01:00 43.14082 -110.58163 37800 ft 465 kts 210°
2026-05-05 01:00 43.08253 -110.62037 37777 ft 465 kts 210°
2026-05-05 01:01 43.02439 -110.65900 37785 ft 464 kts 210°
2026-05-05 01:01 42.96625 -110.69757 37775 ft 464 kts 210°
2026-05-05 01:02 42.90813 -110.73603 37770 ft 464 kts 210°
2026-05-05 01:02 42.85043 -110.77410 37829 ft 463 kts 210°
2026-05-05 01:03 42.79248 -110.81235 37834 ft 463 kts 209°
2026-05-05 01:03 42.73442 -110.85047 37850 ft 463 kts 209°
2026-05-05 01:04 42.67638 -110.88843 37862 ft 462 kts 209°
2026-05-05 01:04 42.58992 -110.94506 37850 ft 460 kts 210°
2026-05-05 01:05 42.53223 -110.98272 37829 ft 458 kts 210°
2026-05-05 01:05 42.47482 -111.02011 37800 ft 457 kts 210°
2026-05-05 01:06 42.41749 -111.05734 37772 ft 455 kts 210°
2026-05-05 01:06 42.36052 -111.09429 37752 ft 453 kts 210°
2026-05-05 01:07 42.30369 -111.13108 37750 ft 452 kts 210°
2026-05-05 01:07 42.24705 -111.16772 37736 ft 450 kts 210°
2026-05-05 01:08 42.19096 -111.20381 37743 ft 449 kts 210°
2026-05-05 01:08 42.13443 -111.24020 37737 ft 449 kts 210°
2026-05-05 01:09 42.07805 -111.27643 37743 ft 449 kts 210°
2026-05-05 01:09 42.02164 -111.31257 37749 ft 448 kts 210°
2026-05-05 01:10 41.96544 -111.34851 37744 ft 446 kts 210°
2026-05-05 01:10 41.90947 -111.38423 37747 ft 445 kts 210°
2026-05-05 01:11 41.85392 -111.41961 37750 ft 443 kts 210°
2026-05-05 01:11 41.79820 -111.45505 37751 ft 442 kts 210°
2026-05-05 01:12 41.74247 -111.49039 37746 ft 441 kts 211°
2026-05-05 01:12 41.68730 -111.52538 37744 ft 440 kts 211°
2026-05-05 01:13 41.63193 -111.56039 37740 ft 439 kts 211°
2026-05-05 01:13 41.57662 -111.59528 37752 ft 439 kts 210°
2026-05-05 01:14 41.52159 -111.62990 37734 ft 436 kts 211°
2026-05-05 01:14 41.46702 -111.66417 37742 ft 436 kts 211°
2026-05-05 01:15 41.41224 -111.69868 37755 ft 435 kts 211°
2026-05-05 01:15 41.36660 -111.72717 37760 ft 435 kts 211°
2026-05-05 01:16 41.31172 -111.76152 37767 ft 436 kts 210°
2026-05-05 01:16 41.25676 -111.79584 37780 ft 436 kts 210°
2026-05-05 01:17 41.20177 -111.83008 37802 ft 436 kts 210°
2026-05-05 01:17 41.14677 -111.86434 37819 ft 437 kts 210°
2026-05-05 01:18 41.09158 -111.89855 37796 ft 437 kts 210°
2026-05-05 01:18 41.03643 -111.93265 37822 ft 436 kts 210°
2026-05-05 01:19 40.98162 -111.96654 37797 ft 436 kts 210°
2026-05-05 01:19 40.92656 -112.00053 37787 ft 436 kts 210°
2026-05-05 01:20 40.87161 -112.03440 37802 ft 435 kts 210°
2026-05-05 01:20 40.81702 -112.06797 37803 ft 435 kts 210°
2026-05-05 01:21 40.76203 -112.10173 37804 ft 436 kts 210°
2026-05-05 01:21 40.70700 -112.13544 37819 ft 436 kts 209°
2026-05-05 01:22 40.65187 -112.16916 37821 ft 437 kts 209°
2026-05-05 01:22 40.59663 -112.20297 37800 ft 438 kts 209°
2026-05-05 01:23 40.54156 -112.23643 37805 ft 439 kts 209°
2026-05-05 01:23 40.48617 -112.27010 37792 ft 438 kts 209°
2026-05-05 01:24 40.43088 -112.30363 37789 ft 437 kts 209°
2026-05-05 01:24 40.37560 -112.33720 37763 ft 437 kts 209°
2026-05-05 01:25 40.32040 -112.37059 37758 ft 437 kts 209°
2026-05-05 01:25 40.26516 -112.40394 37744 ft 436 kts 209°
2026-05-05 01:26 40.21002 -112.43717 37748 ft 436 kts 209°
2026-05-05 01:26 40.15495 -112.47031 37733 ft 436 kts 208°
2026-05-05 01:27 40.09978 -112.50345 37744 ft 436 kts 208°
2026-05-05 01:27 40.04473 -112.53647 37744 ft 435 kts 208°
2026-05-05 01:28 39.98968 -112.56942 37754 ft 436 kts 208°
2026-05-05 01:28 39.93360 -112.59906 37734 ft 439 kts 204°
2026-05-05 01:29 39.87587 -112.62550 37730 ft 439 kts 204°
2026-05-05 01:29 39.81821 -112.65199 37741 ft 438 kts 204°
2026-05-05 01:30 39.76097 -112.67840 37745 ft 438 kts 204°
2026-05-05 01:30 39.70362 -112.70487 37728 ft 438 kts 204°
2026-05-05 01:31 39.64633 -112.73126 37746 ft 436 kts 204°
2026-05-05 01:31 39.58927 -112.75750 37762 ft 434 kts 204°
2026-05-05 01:32 39.53235 -112.78365 37790 ft 433 kts 204°
2026-05-05 01:32 39.47547 -112.80974 37775 ft 432 kts 204°
2026-05-05 01:33 39.41879 -112.83566 37767 ft 430 kts 204°
2026-05-05 01:33 39.36275 -112.86124 37720 ft 428 kts 204°
2026-05-05 01:34 39.30663 -112.88684 37720 ft 427 kts 204°
2026-05-05 01:34 39.25064 -112.91233 37722 ft 426 kts 205°
2026-05-05 01:35 39.19487 -112.93768 37716 ft 424 kts 205°
2026-05-05 01:35 39.13917 -112.96295 37715 ft 423 kts 205°
2026-05-05 01:36 39.08405 -112.98792 37724 ft 422 kts 205°
2026-05-05 01:36 39.02868 -113.01296 37721 ft 421 kts 205°
2026-05-05 01:37 38.97341 -113.03792 37719 ft 420 kts 205°
2026-05-05 01:37 38.91842 -113.06270 37721 ft 418 kts 205°
2026-05-05 01:38 38.86352 -113.08741 37716 ft 417 kts 205°
2026-05-05 01:38 38.80922 -113.11183 37732 ft 416 kts 205°
2026-05-05 01:39 38.75455 -113.13636 37710 ft 416 kts 205°
2026-05-05 01:39 38.69996 -113.16078 37721 ft 414 kts 205°
2026-05-05 01:40 38.64558 -113.18509 37773 ft 413 kts 205°
2026-05-05 01:40 38.59129 -113.20929 37787 ft 413 kts 205°
2026-05-05 01:41 38.53708 -113.23338 37800 ft 412 kts 205°
2026-05-05 01:41 38.48305 -113.25744 37801 ft 409 kts 205°
2026-05-05 01:42 38.42974 -113.28114 37803 ft 408 kts 205°
2026-05-05 01:42 38.37623 -113.30487 37787 ft 407 kts 205°
2026-05-05 01:43 38.32279 -113.32851 37778 ft 406 kts 205°
2026-05-05 01:43 38.26942 -113.35209 37764 ft 405 kts 205°
2026-05-05 01:44 38.21612 -113.37562 37747 ft 405 kts 205°
2026-05-05 01:44 38.16280 -113.39918 37745 ft 406 kts 205°
2026-05-05 01:45 38.10929 -113.42268 37745 ft 407 kts 205°
2026-05-05 01:45 38.05575 -113.44623 37723 ft 409 kts 205°
2026-05-05 01:46 38.00208 -113.46971 37745 ft 407 kts 205°
2026-05-05 01:46 37.94761 -113.49083 37759 ft 412 kts 199°
2026-05-05 01:47 37.89087 -113.50232 37761 ft 419 kts 193°
2026-05-05 01:47 37.83235 -113.50584 37773 ft 421 kts 191°
2026-05-05 01:48 37.77385 -113.50855 37763 ft 419 kts 191°
2026-05-05 01:48 37.71582 -113.51141 37773 ft 416 kts 191°
2026-05-05 01:49 37.65821 -113.51441 37770 ft 414 kts 191°
2026-05-05 01:49 37.60076 -113.51747 37736 ft 412 kts 192°
2026-05-05 01:50 37.54409 -113.52042 37770 ft 409 kts 192°
2026-05-05 01:50 37.48748 -113.52336 37775 ft 406 kts 192°
2026-05-05 01:51 37.43120 -113.52629 37777 ft 404 kts 192°
2026-05-05 01:51 37.37502 -113.52924 37734 ft 403 kts 192°
2026-05-05 01:52 37.31915 -113.53216 37775 ft 402 kts 192°
2026-05-05 01:52 37.26318 -113.53538 37803 ft 401 kts 195°
2026-05-05 01:53 37.21145 -113.55493 37824 ft 384 kts 211°
2026-05-05 01:53 37.16314 -113.58404 37828 ft 390 kts 211°
2026-05-05 01:54 37.11385 -113.61303 37814 ft 388 kts 211°
2026-05-05 01:54 37.06546 -113.64116 37129 ft 382 kts 211°
2026-05-05 01:55 37.04144 -113.65513 36340 ft 379 kts 211°
2026-05-05 01:55 37.01751 -113.66905 35423 ft 379 kts 211°
2026-05-05 01:55 36.99354 -113.68298 34458 ft 381 kts 211°
2026-05-05 01:55 36.96944 -113.69696 33491 ft 382 kts 211°
2026-05-05 01:56 36.94525 -113.71101 32448 ft 385 kts 211°
2026-05-05 01:56 36.92091 -113.72531 31399 ft 389 kts 211°